GFSNE_sfc_thetae_003.txt.gz
Theta_e
294 294 293 294 294 294 293 292 289 286 288 293 292 296 297 297 298 300 302 299 299 299 298 300 300 301 302 303 305 306 305 306 308 308 309 311 315 321
295 294 294 294 294 294 293 293 292 289 285 290 291 293 295 294 296 298 298 299 299 298 297 298 299 299 300 300 300 302 303 304 305 306 309 309 313 316
293 292 291 292 291 291 292 291 290 289 286 289 291 293 293 293 294 296 297 297 298 297 296 297 297 297 297 298 298 298 300 301 302 302 304 307 310 312
289 289 289 288 289 290 290 289 289 290 288 286 289 290 291 293 294 295 294 295 297 296 296 296 296 296 296 297 297 296 296 297 298 299 299 301 303 306
288 287 287 287 286 287 287 287 287 287 288 286 286 289 290 291 290 292 292 293 294 295 295 295 295 295 296 297 297 297 296 297 296 297 297 297 297 298
286 286 285 285 284 285 284 285 285 285 285 285 285 285 287 288 289 288 288 291 291 291 292 292 293 294 296 296 296 297 297 297 297 296 296 294 294 295
285 285 285 285 284 284 284 285 285 284 284 283 282 283 284 284 284 287 286 288 290 291 291 292 293 294 294 296 296 296 296 296 296 296 294 294 293 294
283 284 284 284 284 283 283 284 284 283 282 282 282 281 283 284 284 284 285 284 283 290 289 289 291 291 293 294 293 294 295 295 294 294 293 292 292 292
282 282 282 282 283 283 283 283 283 283 282 283 281 282 282 284 284 283 284 284 284 287 288 286 290 290 293 293 293 293 293 293 293 292 291 291 291 290
282 282 282 282 283 282 281 282 282 283 284 283 283 284 285 285 285 285 285 285 286 286 288 283 288 288 291 294 292 292 292 293 292 291 290 290 290 290
281 282 282 282 282 283 282 281 282 283 284 285 285 285 285 285 285 285 283 282 281 282 286 284 286 287 288 290 292 290 291 292 292 291 290 290 290 290
281 282 282 282 282 282 282 281 280 281 283 285 285 285 286 286 285 285 285 281 281 280 285 283 283 284 283 290 290 292 292 290 290 291 290 290 289 292
280 281 283 282 281 281 281 281 280 281 281 282 283 284 285 285 285 286 286 285 283 282 286 286 283 285 284 284 286 289 290 289 290 289 288 288 288 288
280 282 283 279 279 278 279 279 279 279 280 280 281 281 282 284 285 286 286 287 288 286 287 287 284 284 284 284 283 288 289 289 290 288 290 288 285 286
282 280 279 278 277 277 277 277 277 279 279 279 279 281 283 285 286 286 286 286 286 286 286 287 286 285 285 284 283 285 286 288 287 287 288 289 289 290
281 280 278 277 276 277 277 278 278 278 277 278 279 281 283 284 284 285 284 284 283 283 286 286 286 286 285 285 284 284 286 285 287 288 288 287 288 288
279 277 275 275 275 276 276 276 277 277 277 277 279 280 282 283 283 284 284 284 282 282 283 285 286 286 287 286 284 285 286 286 288 288 283 287 289 288
275 273 272 273 274 274 274 274 275 275 276 277 278 279 280 281 282 283 283 283 282 283 283 284 285 284 284 283 283 285 286 286 287 286 285 285 287 289
272 272 271 271 272 273 273 273 273 275 276 276 276 277 278 281 281 282 282 282 282 283 284 285 284 283 280 279 283 280 283 285 286 284 284 283 285 287
271 270 270 271 271 272 272 272 273 275 275 275 275 276 277 279 280 280 281 281 282 282 282 283 283 282 281 281 281 281 280 282 283 283 282 283 282 279
269 269 270 270 271 271 272 272 273 273 274 274 275 275 275 276 277 279 280 277 279 281 279 279 279 278 282 282 279 279 280 281 281 282 281 281 280 281
268 269 269 270 270 270 271 271 273 274 274 274 274 275 275 276 276 277 278 278 278 279 278 279 279 280 280 279 279 276 278 279 279 278 279 279 281 280
268 268 269 269 270 271 271 271 272 273 273 273 274 275 275 275 276 277 277 277 277 277 277 278 278 278 277 277 277 276 275 276 278 279 279 277 279 279

GFSNE_sfc_thetae_006.txt.gz
Theta_e
298 297 297 297 295 294 294 293 290 288 289 295 297 302 301 301 301 301 301 300 298 300 299 300 301 300 300 300 302 303 306 306 305 307 308 309 310 314
294 293 294 295 296 295 294 294 293 291 287 292 294 296 297 296 298 298 298 299 298 298 299 298 299 299 299 299 299 300 301 304 304 304 305 307 309 310
293 293 292 293 293 293 293 293 292 292 288 291 293 295 295 296 296 297 297 298 298 297 297 297 297 297 297 297 298 299 299 300 302 303 303 304 306 308
292 292 291 290 291 291 291 291 291 292 290 288 291 292 293 295 296 296 295 296 297 296 297 297 296 296 296 295 295 297 297 297 297 299 300 301 302 303
291 290 290 290 289 290 290 289 290 289 290 288 288 291 292 293 293 294 294 295 295 295 295 295 295 296 296 295 296 296 297 297 296 295 296 297 298 298
290 289 289 288 288 288 287 287 287 287 288 287 287 288 289 291 291 290 290 292 292 293 293 292 293 294 295 295 295 296 296 297 297 296 295 295 294 296
289 288 288 288 286 286 285 286 286 286 286 287 286 287 287 288 287 290 288 290 291 293 293 294 294 294 295 293 293 294 295 296 296 296 295 294 293 294
287 287 287 287 286 286 285 284 285 284 284 284 284 283 285 286 288 286 287 286 284 292 291 291 293 292 294 295 293 293 294 295 295 295 295 293 292 292
286 286 285 285 285 286 285 285 284 284 282 283 282 283 283 285 286 285 285 285 285 288 289 288 291 290 293 293 292 292 293 293 294 294 293 292 291 291
285 285 285 285 285 284 283 283 283 284 285 285 284 284 285 286 287 287 286 286 287 288 289 284 289 289 292 292 292 292 293 293 293 293 292 291 290 289
284 284 283 283 283 283 283 282 283 284 286 286 286 285 285 286 286 286 285 284 284 284 288 286 287 288 289 291 294 291 291 291 291 292 292 291 290 290
282 282 283 283 283 283 283 283 281 282 283 285 286 286 286 286 285 286 286 283 283 283 286 285 285 285 284 291 292 294 294 290 290 290 291 292 291 294
280 282 284 282 281 280 280 281 280 282 281 281 282 283 285 286 287 288 288 287 284 283 287 286 286 285 285 286 289 291 291 292 293 293 290 291 290 290
280 283 284 280 280 279 279 279 279 279 281 281 282 281 283 284 286 288 288 288 289 287 288 288 286 286 285 284 284 289 291 292 291 290 292 292 288 288
282 281 279 279 279 279 278 278 278 281 281 280 281 282 284 286 287 287 288 288 288 288 288 288 287 286 286 285 285 287 287 290 290 289 289 291 292 293
280 282 279 278 279 279 280 280 280 280 279 279 280 282 284 285 286 287 285 286 285 285 288 288 287 287 284 285 285 286 288 286 289 289 289 290 291 292
279 279 277 277 277 278 278 278 279 280 279 280 281 281 282 284 285 286 286 285 284 284 285 286 287 287 287 286 284 287 287 287 289 290 288 288 290 291
277 275 274 274 275 277 277 277 278 278 278 280 280 281 281 283 284 285 284 284 284 285 285 286 286 285 285 285 286 285 286 287 289 289 289 286 287 292
274 274 273 273 274 275 276 276 276 277 279 279 279 280 280 281 283 284 284 283 283 284 285 286 285 284 282 281 284 280 284 286 287 287 288 285 286 289
273 272 272 273 274 274 275 274 276 277 277 277 278 279 279 280 281 281 283 282 284 285 285 284 284 284 283 282 284 282 281 282 285 285 286 286 284 279
271 272 273 273 274 274 275 275 276 276 277 277 277 278 278 279 279 280 280 280 281 283 282 282 282 280 284 285 282 281 281 281 282 283 285 284 283 283
271 272 272 273 273 274 274 275 276 276 276 276 277 278 278 279 279 279 279 279 279 280 280 281 282 282 282 281 282 280 280 281 280 279 280 279 281 281
271 272 272 273 273 273 274 274 275 275 275 275 276 277 279 278 279 279 279 279 279 279 279 280 281 282 280 280 280 281 278 279 281 281 280 278 279 279

GFSNE_sfc_thetae_009.txt.gz
Theta_e
297 297 297 297 297 297 296 294 290 287 289 294 295 301 302 302 302 302 302 301 300 299 300 301 302 301 300 300 301 301 302 305 306 305 306 308 309 310
296 295 294 295 295 296 295 296 294 291 287 293 293 296 298 297 300 300 300 300 298 297 298 300 301 300 300 299 299 299 300 300 304 305 305 304 305 307
295 295 294 294 293 293 294 294 293 292 289 292 293 296 297 297 297 299 299 299 299 296 296 297 298 298 298 297 297 298 299 300 300 301 304 305 305 305
293 293 292 292 292 292 291 291 291 292 290 288 291 293 294 296 297 297 296 296 297 296 296 296 297 296 296 296 296 296 296 297 298 298 298 300 302 303
291 291 290 290 289 290 290 290 290 289 290 289 289 292 293 294 294 295 295 297 296 297 296 296 296 296 296 296 296 296 296 296 296 296 296 296 296 299
290 290 289 289 289 288 288 288 288 287 287 287 288 288 290 291 292 291 291 294 294 294 294 292 294 295 295 295 295 295 295 295 295 296 295 294 294 295
289 289 290 290 288 287 286 286 285 285 285 285 286 287 288 289 289 291 290 292 293 295 294 295 296 296 295 293 293 294 294 294 294 295 296 295 294 294
285 287 288 289 288 288 287 287 285 283 282 284 284 284 286 287 289 288 288 287 285 292 291 291 294 293 295 295 294 293 293 293 293 293 294 294 293 293
285 286 286 286 287 287 286 286 285 285 283 283 281 282 283 285 286 286 286 286 286 289 289 288 292 292 294 293 293 293 292 293 294 294 294 293 292 292
284 285 285 285 286 285 284 284 284 284 285 285 285 285 286 287 287 286 286 287 288 289 290 285 291 290 292 293 292 292 292 292 292 293 293 292 291 291
283 283 284 283 284 284 283 282 283 284 286 287 286 286 286 286 287 286 284 283 283 285 289 287 288 288 290 291 293 291 291 291 291 292 292 292 291 290
282 282 283 283 284 284 283 283 281 282 283 284 285 285 286 287 286 286 285 282 283 283 287 286 286 286 284 290 291 292 292 290 290 290 290 291 292 292
281 282 284 281 281 281 281 281 280 281 281 281 282 283 284 285 287 288 288 286 284 284 288 287 286 286 286 285 289 291 292 292 292 292 290 290 291 292
280 282 283 281 280 280 280 280 279 279 280 280 281 282 283 284 285 287 289 289 289 287 289 288 285 286 285 285 284 289 290 291 292 291 292 292 290 290
282 280 281 280 280 280 281 279 279 280 282 281 281 282 284 286 287 287 288 289 289 289 288 288 287 287 286 284 284 286 287 290 292 289 290 290 289 290
279 280 281 279 280 280 281 281 282 282 280 281 281 282 284 285 286 287 286 286 286 286 288 289 288 287 285 285 286 285 287 286 289 289 288 288 289 291
277 279 278 277 277 278 279 280 281 280 280 281 281 282 283 284 285 287 286 286 284 284 285 287 288 287 287 286 284 286 286 286 289 289 288 288 288 289
277 275 275 275 275 276 277 277 279 278 279 280 281 281 281 282 283 286 286 285 284 285 285 286 286 284 284 284 286 284 285 286 288 288 288 287 287 291
275 274 274 274 275 275 276 276 276 278 279 279 280 280 281 281 282 283 284 285 284 285 286 287 286 284 281 279 284 281 284 286 287 287 288 288 286 288
274 274 274 274 274 275 275 275 277 278 278 279 279 280 280 280 280 280 281 281 282 284 285 285 285 283 282 281 282 280 281 281 283 284 286 287 286 281
273 273 274 274 274 275 276 276 277 277 277 278 278 279 279 280 280 280 280 281 281 282 281 281 282 281 283 285 282 281 280 281 281 281 283 285 284 284
273 273 273 274 274 274 275 276 276 276 276 276 277 279 280 280 279 279 280 279 279 280 280 282 282 282 282 281 281 280 281 281 280 280 280 280 279 279
273 273 273 274 274 274 274 274 275 275 275 276 276 278 279 279 280 280 280 280 279 279 279 280 281 282 280 279 279 280 278 280 281 281 280 280 280 280

GFSNE_sfc_thetae_012.txt.gz
Theta_e
294 294 293 294 295 295 295 294 289 285 285 289 291 298 298 300 300 300 300 300 299 298 299 300 303 303 303 305 306 305 305 305 306 306 306 306 306 307
294 294 293 293 293 293 292 293 293 290 286 290 291 293 297 298 299 298 299 300 299 297 298 298 299 301 300 300 300 301 300 300 302 305 305 305 305 305
292 293 292 292 292 291 291 290 288 288 286 287 290 291 291 293 294 295 296 295 295 297 296 296 297 298 299 298 297 297 298 299 299 300 301 304 305 305
290 290 290 291 289 289 289 288 288 288 286 284 286 288 287 289 290 291 294 295 293 297 296 296 296 296 297 296 296 296 296 296 297 298 298 298 300 302
287 287 287 287 285 285 286 286 286 287 286 284 283 285 286 287 287 288 289 290 294 297 296 295 296 296 296 295 295 296 296 296 295 295 296 296 297 297
285 285 285 286 286 286 286 284 284 283 282 282 282 283 284 286 286 285 285 287 288 292 293 292 294 295 296 295 295 295 295 296 295 295 294 293 293 295
283 284 285 287 289 287 285 283 282 280 280 280 280 282 283 283 283 286 285 286 287 289 288 288 289 290 292 295 294 295 295 295 295 295 294 294 293 294
281 282 283 286 286 288 288 288 285 280 280 279 279 279 280 281 283 283 281 281 279 286 285 283 287 287 289 290 293 293 292 293 294 294 293 292 293 293
280 281 282 284 285 284 285 285 285 286 283 281 279 280 279 281 281 281 280 280 280 283 283 279 281 283 287 291 292 293 292 292 292 292 293 292 292 292
280 280 280 281 282 283 282 281 281 282 283 283 283 282 283 283 284 283 283 283 282 283 284 281 279 282 281 285 292 292 292 292 292 291 291 292 292 291
280 280 281 280 282 284 281 280 280 281 285 286 286 286 286 286 286 284 280 280 279 281 282 282 280 281 281 282 284 291 291 291 291 291 292 292 292 291
279 280 282 282 282 282 281 280 279 281 281 280 280 281 283 283 285 285 283 279 278 277 282 282 281 280 280 281 284 284 281 289 290 291 291 291 291 288
277 278 280 282 282 281 281 279 278 280 279 279 278 279 280 281 283 284 285 283 280 279 283 284 281 278 281 279 279 281 284 284 284 286 290 290 291 290
277 279 279 281 281 281 280 280 281 279 277 277 278 278 280 281 283 284 285 286 286 284 285 286 283 280 278 280 281 281 282 283 284 281 283 288 290 290
278 278 279 281 280 280 280 281 280 278 278 278 278 280 281 283 284 283 284 285 285 287 288 286 285 282 283 281 279 278 279 282 286 286 282 280 280 285
277 277 279 278 278 278 280 280 280 280 279 279 279 280 282 282 282 284 284 284 282 281 285 285 285 284 282 281 282 279 279 279 284 287 285 284 283 287
276 277 276 275 275 276 277 277 278 278 278 278 279 280 281 281 281 281 283 280 280 279 280 281 284 284 282 281 279 280 279 280 281 284 285 283 281 286
275 274 273 273 273 274 275 275 276 277 277 278 278 279 279 279 280 281 283 280 276 277 280 281 284 282 281 280 285 281 278 279 281 283 286 284 284 283
273 273 272 272 273 274 274 274 274 276 277 277 278 278 278 278 279 279 280 280 280 281 278 284 282 279 278 276 279 283 280 280 282 279 280 281 284 283
272 272 272 272 272 273 273 273 274 276 275 275 276 277 276 278 279 278 278 279 279 280 281 279 277 277 277 276 279 276 282 280 281 279 280 284 281 283
271 272 272 272 272 272 272 273 273 274 274 274 275 276 277 278 276 278 278 277 277 279 277 276 276 277 277 276 276 277 275 281 280 279 279 279 281 280
271 271 272 272 272 272 271 272 272 272 273 273 273 274 276 277 277 277 277 277 277 277 278 278 281 280 278 277 276 275 275 273 278 280 280 279 277 276
268 270 271 270 271 271 271 270 271 270 270 271 271 272 275 275 276 277 277 277 276 274 273 277 278 279 278 278 274 277 269 273 277 277 274 280 280 280

GFSNE_sfc_thetae_015.txt.gz
Theta_e
292 294 293 293 294 294 294 293 289 283 284 286 288 293 296 297 298 299 299 299 299 299 298 300 302 303 302 303 305 306 307 307 306 306 306 306 306 306
293 292 292 293 294 293 292 290 290 288 284 287 288 290 293 297 298 297 298 297 296 297 297 297 298 300 300 299 300 300 301 301 302 305 305 305 304 304
289 288 288 289 290 291 291 290 289 288 283 284 286 287 287 288 291 295 297 296 296 296 296 296 297 297 298 298 297 297 297 298 298 298 299 301 304 305
284 284 284 286 285 286 286 285 286 285 284 280 282 283 284 286 287 287 291 294 294 296 297 296 296 296 296 297 296 296 296 296 296 297 297 297 297 299
283 283 283 283 282 283 284 283 283 285 282 280 279 282 282 284 285 285 286 289 291 295 294 295 295 296 296 296 296 296 296 295 295 295 295 295 296 297
283 282 282 282 282 282 284 283 283 281 281 279 279 280 281 283 283 282 282 284 286 290 292 291 293 295 296 296 295 296 295 296 295 295 294 293 292 294
281 281 282 283 285 286 284 284 282 280 279 278 278 278 278 279 279 281 280 282 283 286 286 286 286 288 289 292 294 295 295 295 295 295 294 293 292 293
278 279 280 282 283 284 285 285 284 282 278 277 277 276 277 277 280 278 278 278 278 285 283 282 285 284 287 288 292 293 293 293 293 293 293 293 292 292
277 278 279 280 281 281 283 284 283 284 283 282 280 278 278 279 279 278 277 277 277 281 281 278 278 281 284 289 292 292 292 292 292 292 291 291 291 291
279 279 278 279 280 281 280 280 280 280 281 282 281 281 280 281 281 282 281 283 280 281 282 278 277 279 280 282 290 292 292 292 292 291 291 291 290 291
279 279 279 278 281 283 280 279 279 280 284 285 285 285 285 286 286 284 280 280 278 278 280 277 277 276 277 279 282 290 291 291 291 291 291 291 291 290
278 278 280 279 281 282 279 277 276 277 279 279 279 280 281 281 283 281 281 279 279 274 279 279 278 277 274 277 282 282 281 288 290 291 291 291 291 289
276 276 278 280 280 282 281 279 277 279 279 278 277 277 279 279 280 282 281 281 279 279 281 282 277 276 277 277 276 278 279 281 283 285 290 291 291 290
275 276 277 280 280 280 280 281 281 280 277 277 277 277 278 279 282 284 284 283 284 283 284 284 281 280 280 277 276 277 277 280 279 279 281 287 289 290
277 278 279 279 279 279 280 280 279 279 278 277 278 279 280 281 283 283 283 284 284 285 286 285 284 283 282 280 280 278 277 277 276 281 284 280 279 278
276 276 277 277 277 278 277 278 278 278 277 276 277 279 281 282 282 283 282 284 283 281 284 286 286 285 283 283 282 280 281 280 282 283 286 285 280 281
275 275 274 274 274 275 275 276 276 277 276 276 277 278 279 279 280 281 283 280 277 277 278 279 283 284 284 283 280 281 281 279 279 278 284 283 285 281
273 272 272 271 271 273 273 273 274 275 276 276 276 277 277 277 278 279 278 277 277 277 276 278 281 282 282 282 285 282 279 278 277 279 278 282 283 283
271 271 270 270 271 272 272 272 272 275 275 275 275 275 276 277 277 277 277 277 277 280 280 280 280 281 279 276 279 283 281 280 280 274 275 276 282 281
270 270 270 270 271 271 271 271 272 273 273 273 273 274 275 276 273 275 275 271 276 277 277 276 275 274 274 275 275 271 282 276 277 274 274 277 279 283
268 270 270 271 270 270 269 270 270 270 270 270 271 272 273 275 275 272 272 272 274 276 274 274 275 276 276 274 274 271 271 281 277 273 275 273 276 279
263 267 270 270 269 269 269 268 269 268 268 268 268 269 271 274 273 274 275 272 271 270 272 274 279 280 276 275 272 272 273 268 276 280 280 278 274 274
260 263 264 266 267 267 269 268 267 265 266 266 266 267 268 270 272 274 273 273 273 270 270 274 277 276 276 275 272 274 267 267 271 271 272 279 280 280

GFSNE_sfc_thetae_021.txt.gz
Theta_e
286 285 284 284 284 286 287 288 286 280 281 284 283 289 289 291 291 290 294 297 296 296 296 297 299 299 301 301 303 306 310 313 314 314 313 311 309 309
284 282 282 283 283 283 282 283 285 284 281 284 285 286 286 288 289 287 288 296 296 295 295 295 295 297 299 299 299 301 306 309 309 309 308 307 306 306
282 281 281 282 281 280 281 281 281 282 280 282 284 285 283 283 284 286 286 286 291 296 295 294 294 295 296 297 298 298 299 303 305 306 307 307 307 307
281 281 281 282 279 279 279 279 279 281 280 278 280 280 281 283 283 282 286 288 286 291 293 295 294 294 295 295 296 297 297 297 298 300 301 301 301 301
281 280 280 279 278 278 278 278 279 281 280 279 280 280 280 280 280 281 282 282 286 288 289 292 295 295 295 295 295 296 296 296 295 295 296 297 298 298
281 280 280 279 278 277 278 278 280 280 280 280 279 279 279 280 280 279 279 280 280 284 285 289 290 292 295 295 295 295 296 296 296 295 293 292 293 295
280 280 280 281 283 281 279 278 277 277 280 280 279 279 279 278 277 278 278 278 278 279 280 283 285 286 288 290 294 295 295 296 295 295 294 292 292 292
279 279 279 280 280 281 281 281 281 278 277 278 278 278 279 277 277 277 276 275 274 279 279 278 282 283 285 286 290 292 293 294 295 295 294 293 292 292
278 278 278 279 279 278 280 281 281 282 281 279 277 278 278 279 278 276 276 275 275 278 278 275 276 280 283 285 288 290 291 292 293 293 292 292 291 290
277 277 276 277 278 279 279 280 279 280 280 281 281 280 279 280 279 279 278 278 278 279 279 278 274 276 278 281 286 289 291 291 292 291 291 291 290 290
277 277 277 277 279 281 280 278 278 279 281 282 282 282 283 283 283 281 279 278 277 278 278 277 275 274 275 277 280 288 289 290 291 291 291 291 290 290
276 276 278 278 280 280 278 277 276 277 278 278 278 279 280 279 281 279 278 276 275 272 277 277 278 275 271 274 275 278 278 287 289 290 291 291 291 285
275 275 277 279 279 280 280 278 278 279 279 279 278 278 278 278 278 279 278 277 275 275 278 278 275 274 274 274 274 275 276 276 277 280 289 290 291 289
275 275 276 278 278 278 278 279 279 278 277 276 277 277 277 278 280 280 281 280 280 279 281 281 276 277 275 273 273 275 274 274 274 275 276 282 288 289
274 276 277 277 276 276 277 277 276 276 275 274 275 276 278 280 282 282 282 283 283 283 283 282 281 279 277 275 275 273 275 275 272 273 279 277 277 278
272 272 272 275 273 274 274 275 275 275 275 274 275 277 279 279 280 281 281 282 282 281 284 284 283 282 280 281 281 278 278 278 277 277 281 275 276 281
266 265 268 270 269 271 271 272 273 273 272 273 274 274 276 278 279 280 280 279 276 279 280 282 284 284 284 283 281 282 280 280 280 276 280 276 275 277
267 262 260 262 267 269 269 269 270 270 271 271 272 273 273 275 276 278 277 277 276 277 277 278 282 281 282 282 285 282 281 281 281 281 279 280 279 277
262 260 257 262 263 269 269 268 268 267 269 269 270 270 271 273 274 275 275 276 276 277 276 273 278 280 279 276 277 281 277 281 278 280 280 281 278 276
264 261 260 261 263 267 268 267 267 266 265 266 267 267 268 270 271 273 273 270 272 273 274 274 273 272 272 271 271 271 281 277 279 276 274 273 274 280
263 264 260 262 262 263 260 263 263 263 262 262 264 265 266 268 270 271 271 269 268 272 270 270 271 274 273 269 268 266 267 278 275 272 270 273 274 277
261 263 264 263 259 259 256 256 262 262 263 263 262 262 263 265 268 269 270 266 267 266 269 272 274 276 271 272 268 268 272 274 275 279 279 276 270 271
260 262 260 257 258 257 261 257 258 257 262 262 262 263 262 262 266 266 267 267 268 268 268 270 272 272 273 273 269 270 268 267 275 270 269 278 280 280

GFSNE_sfc_thetae_024.txt.gz
Theta_e
286 285 282 283 283 283 283 283 281 276 278 282 284 289 290 291 292 291 289 293 297 297 296 296 297 298 299 300 301 301 303 310 314 315 316 315 314 313
284 282 282 282 282 282 281 281 281 279 276 282 284 286 288 289 290 290 288 291 291 294 295 295 295 296 297 297 299 300 301 301 312 312 313 312 310 310
282 281 281 281 281 280 280 280 279 279 277 279 282 284 285 285 286 287 288 287 288 290 293 295 294 294 295 295 296 297 298 299 302 309 309 309 309 309
281 281 281 282 280 279 279 278 278 279 278 277 280 281 282 284 284 284 285 286 287 289 290 291 294 294 294 294 295 295 296 296 296 301 306 307 308 309
281 280 280 280 279 278 278 278 278 279 279 280 279 282 282 282 282 283 283 284 286 287 287 289 291 293 294 294 294 295 296 296 295 295 295 297 301 302
281 281 280 280 279 278 278 279 278 278 278 277 278 280 281 282 281 281 280 282 282 284 285 286 289 290 293 295 294 295 295 296 295 295 293 293 293 296
281 281 281 281 283 282 279 279 278 277 278 278 277 278 279 280 279 281 280 280 280 281 282 283 285 285 288 290 295 295 294 294 295 295 294 293 292 293
278 278 278 279 279 280 280 280 280 278 277 277 277 276 277 279 280 280 279 277 277 281 281 280 283 284 285 287 288 290 293 295 295 295 294 293 292 292
276 276 276 278 278 278 279 280 280 281 280 279 278 278 278 279 280 279 279 278 277 280 280 279 280 282 285 285 287 288 290 292 293 294 293 292 292 291
276 276 276 276 278 279 279 279 279 280 280 281 280 280 281 281 281 280 280 280 280 280 281 278 281 281 282 283 286 288 289 290 292 292 292 292 291 290
277 277 277 277 279 281 279 278 278 279 281 283 283 282 282 282 282 282 279 279 277 279 280 280 279 280 280 282 284 286 288 290 290 291 291 291 291 290
276 277 278 278 279 280 278 276 276 277 278 279 280 280 281 280 281 280 279 277 278 275 279 279 279 279 277 279 280 282 284 287 289 290 291 292 291 290
275 275 276 278 279 279 279 277 277 278 278 278 278 279 280 280 279 280 279 278 277 277 279 280 278 277 278 278 280 281 281 283 285 286 289 290 291 290
273 274 275 277 277 277 277 278 278 276 276 275 276 276 278 279 281 281 280 280 280 279 281 281 279 279 279 277 278 281 281 281 282 283 283 284 288 290
273 274 276 275 275 275 275 276 275 274 274 273 274 275 277 279 281 282 283 282 282 282 282 283 281 280 280 278 278 279 281 281 279 282 282 282 285 284
271 270 270 273 270 271 273 273 273 273 272 272 273 274 277 278 279 281 280 282 281 282 284 284 282 282 280 280 281 280 280 281 281 281 282 282 284 285
265 264 266 267 268 270 270 271 271 270 270 271 271 272 274 275 277 279 279 279 278 279 280 282 283 284 283 282 280 282 281 281 282 282 281 282 283 284
266 261 258 257 262 267 268 268 269 268 268 269 270 271 271 272 274 277 277 277 277 278 278 279 282 282 282 283 285 282 282 282 283 283 282 282 282 283
263 261 256 256 259 266 267 268 267 267 267 267 268 268 269 271 272 274 274 274 275 276 277 278 279 280 279 277 278 282 280 282 281 282 282 282 281 283
264 262 260 260 263 265 266 265 266 265 265 264 265 265 267 269 270 271 272 270 272 274 275 276 276 276 277 277 277 278 280 279 281 279 279 279 279 280
264 265 262 263 264 264 259 258 256 262 263 262 263 263 263 266 269 270 270 267 268 271 271 272 274 275 276 276 275 275 277 278 278 277 276 277 277 279
263 265 265 264 262 261 257 255 258 257 262 263 263 262 262 263 266 267 268 268 269 269 270 273 275 277 276 276 274 274 274 275 276 279 279 278 277 276
263 264 263 260 260 259 262 259 258 256 258 261 262 263 263 263 265 265 266 267 268 268 269 270 272 274 274 274 273 274 273 273 276 276 277 278 280 280

GFSNE_sfc_thetae_027.txt.gz
Theta_e
293 293 292 291 291 290 289 288 284 280 281 285 285 289 291 292 293 294 295 295 294 293 294 296 297 297 298 299 300 301 302 303 305 308 315 317 318 319
292 291 290 290 289 289 288 287 286 283 280 284 284 286 288 288 290 291 292 294 292 292 292 293 296 295 296 297 297 298 299 300 301 304 310 315 316 316
291 289 288 288 287 287 287 286 284 283 280 282 284 285 286 287 288 290 291 293 293 291 292 292 293 295 295 295 295 296 297 298 298 300 307 313 314 314
288 287 287 287 286 286 285 284 284 283 281 279 282 283 284 286 287 288 289 290 292 291 290 290 289 292 294 294 294 295 295 296 297 296 299 309 311 312
287 287 286 286 284 284 284 283 282 282 281 280 280 282 283 285 285 287 288 289 290 290 289 289 288 289 291 294 294 294 295 296 296 295 294 295 301 307
286 285 284 283 283 282 281 281 281 281 280 279 279 280 281 283 284 284 284 287 287 288 288 287 287 288 290 291 294 294 295 295 295 294 294 293 292 297
284 282 282 282 281 281 281 280 280 279 279 279 279 279 279 280 279 282 282 284 286 288 287 288 289 289 292 292 294 295 295 295 294 295 294 293 292 293
280 281 281 280 281 280 280 280 281 280 279 279 278 279 279 281 281 281 281 281 280 288 286 286 289 287 289 292 288 289 291 294 294 295 294 293 293 292
280 279 279 280 280 280 280 281 282 281 281 281 279 280 279 281 281 281 282 281 281 283 285 283 287 286 289 289 288 288 290 291 293 294 294 292 292 291
280 280 279 279 280 279 281 280 280 280 281 282 282 282 282 283 282 282 282 283 283 284 285 280 285 285 288 289 287 287 288 290 291 292 293 293 292 291
280 280 279 279 279 280 279 279 278 279 281 281 282 283 283 283 283 282 280 280 280 281 284 282 283 284 286 287 289 287 287 288 290 291 292 292 292 291
280 279 278 278 279 279 278 278 276 278 279 280 281 282 283 283 282 283 281 279 280 280 284 282 282 283 281 287 288 289 290 288 289 290 291 292 291 293
278 277 278 277 278 277 278 278 277 278 278 279 279 281 281 282 283 284 283 282 280 280 284 284 282 282 282 283 288 289 290 289 290 290 289 291 291 292
277 277 277 277 276 276 277 277 276 277 278 278 278 278 279 280 282 283 285 285 284 283 285 284 282 281 281 280 281 287 289 290 290 289 290 290 289 290
278 276 275 275 275 275 275 275 275 275 275 275 276 277 278 280 282 284 285 286 285 285 284 285 283 283 283 282 281 284 286 288 289 290 290 290 290 291
276 276 274 274 273 274 275 275 274 274 273 274 275 277 279 280 281 282 282 283 284 284 286 285 284 284 282 282 282 283 285 284 287 287 287 286 288 291
274 275 274 273 273 273 274 274 273 272 273 274 274 275 276 278 279 281 281 282 281 281 282 285 285 285 285 284 282 284 285 285 287 286 285 286 289 291
275 274 273 272 272 272 272 272 273 271 271 273 273 274 274 276 277 279 280 279 279 280 281 282 285 283 283 284 284 285 285 285 286 286 286 285 286 289
275 274 273 272 272 272 272 272 271 271 270 271 272 272 273 274 276 277 277 278 278 279 280 282 282 282 281 280 283 282 284 285 284 283 284 284 284 286
275 274 274 274 273 272 272 271 271 271 270 269 271 271 271 273 274 275 276 275 276 277 278 280 281 280 280 280 281 282 280 283 283 283 283 284 285 281
276 275 275 274 274 273 273 271 270 270 269 269 270 270 270 271 272 273 274 273 274 276 275 277 279 279 281 282 281 281 282 279 282 283 283 283 282 283
278 276 276 275 275 274 273 272 271 272 270 270 269 270 270 271 271 271 272 273 274 274 275 277 279 280 281 280 279 278 281 282 280 280 280 280 283 280
278 278 277 276 275 274 273 273 271 271 270 269 269 270 270 270 270 271 272 273 273 272 273 275 277 279 279 279 278 280 278 279 282 282 282 278 280 280

GFSNE_sfc_thetae_030.txt.gz
Theta_e
295 295 293 293 292 291 292 290 286 283 284 288 287 292 292 292 292 292 293 293 293 294 293 292 293 295 297 297 298 299 300 303 303 305 306 309 314 319
295 293 293 292 291 292 291 290 289 286 284 287 288 289 290 290 291 291 291 292 291 292 293 292 292 293 296 296 297 297 299 300 301 301 303 305 309 316
293 292 292 293 291 291 291 289 288 287 283 286 287 289 288 288 289 290 290 291 292 293 293 292 291 291 292 295 295 296 297 298 299 299 299 302 307 312
292 292 291 290 290 290 289 288 287 286 283 282 285 285 285 287 287 287 288 289 291 292 291 290 290 290 291 292 294 295 295 296 297 296 296 297 300 311
291 291 290 289 288 287 287 286 285 284 284 283 282 284 284 286 285 286 287 288 289 291 291 290 290 290 289 290 292 294 295 296 296 295 294 294 294 303
291 289 288 286 285 285 284 284 283 282 283 282 281 281 282 284 285 284 283 287 287 289 291 289 289 290 289 290 292 293 295 295 296 294 293 292 292 295
288 287 286 284 282 282 282 282 281 281 280 280 280 281 281 282 281 284 283 284 286 288 288 290 290 290 292 290 291 293 293 295 295 295 293 292 292 293
285 285 285 284 283 281 281 281 281 281 280 280 280 279 281 282 283 283 282 282 280 288 287 288 290 289 289 291 288 288 289 291 295 295 293 292 292 292
285 284 283 283 283 282 281 281 282 282 281 282 280 280 281 283 283 282 282 282 282 286 286 284 288 287 289 289 289 288 288 289 292 294 293 292 291 291
284 284 284 283 283 281 280 280 282 282 282 282 282 282 283 284 284 284 283 283 284 285 286 281 286 286 289 289 289 287 288 288 289 292 293 292 291 291
284 284 282 281 280 280 279 279 280 281 282 282 282 282 282 283 284 284 282 281 280 282 286 284 285 285 286 289 290 288 288 287 288 290 292 293 292 291
284 283 280 279 278 279 278 278 278 279 279 280 281 283 284 284 283 284 283 280 280 280 284 283 283 283 283 288 289 291 291 287 287 289 291 293 292 294
282 282 282 278 278 277 277 278 278 278 278 279 280 282 283 284 284 285 286 284 281 281 285 285 284 283 283 284 288 289 291 291 292 292 289 291 291 293
281 282 281 277 277 276 277 276 276 277 279 279 279 279 280 281 283 284 286 286 287 285 287 287 283 283 282 282 283 288 289 291 292 292 293 292 290 291
281 280 277 276 276 277 276 276 276 278 277 277 277 278 279 281 283 285 286 287 287 287 286 286 285 284 284 284 283 285 286 288 291 291 292 292 292 293
281 281 278 276 277 277 278 278 278 277 276 277 277 278 280 281 282 283 283 284 286 286 287 287 286 285 284 285 285 284 287 285 289 289 290 291 292 293
278 280 280 279 278 278 278 278 278 277 276 276 277 277 278 279 280 282 282 283 282 283 284 286 287 287 286 286 284 284 285 286 288 288 288 288 290 291
278 279 279 279 278 277 277 277 277 276 275 275 276 277 276 277 278 280 281 280 281 281 282 284 286 284 284 285 284 285 286 286 287 288 288 286 287 290
279 280 279 279 278 278 277 277 276 276 275 275 275 276 276 276 277 278 279 278 279 280 282 283 284 283 281 280 284 282 286 286 287 286 287 286 286 289
279 280 279 279 279 278 277 277 276 276 276 275 275 275 275 275 276 276 277 276 277 279 280 282 282 280 279 280 283 283 281 286 286 285 286 287 287 282
281 281 281 280 280 279 278 277 276 276 274 274 275 275 275 274 275 276 276 276 276 277 277 278 280 281 283 284 282 282 282 281 282 284 285 285 284 285
281 281 281 281 280 280 279 278 277 277 276 275 275 275 275 275 274 274 275 275 276 276 277 279 280 281 283 281 281 280 282 283 281 281 281 280 282 283
282 281 282 281 281 280 279 278 277 277 276 275 275 275 274 274 275 275 274 275 275 275 276 277 279 281 281 280 279 282 281 281 282 282 282 280 281 281

GFSNE_sfc_thetae_033.txt.gz
Theta_e
298 298 296 296 295 294 293 291 288 284 285 289 289 293 294 294 294 294 294 293 293 293 293 293 293 294 294 295 296 297 298 299 300 302 304 305 308 309
298 296 295 294 294 293 292 292 290 288 284 288 289 291 292 290 292 292 292 293 292 292 293 292 293 294 293 293 295 295 296 297 298 299 302 302 305 307
295 295 293 294 292 292 292 291 290 289 286 288 289 290 289 289 289 290 291 291 291 292 292 293 293 293 292 292 292 293 295 296 297 298 299 300 301 304
293 292 291 291 290 290 290 288 288 288 286 283 285 286 286 287 288 288 288 288 290 291 292 292 292 292 292 291 291 292 293 294 296 296 297 297 297 299
292 291 290 289 288 288 287 286 286 286 286 284 283 285 285 286 286 287 287 288 288 290 291 291 291 292 292 291 291 291 293 293 295 296 296 294 294 295
291 290 289 288 287 285 284 284 284 283 282 282 281 282 284 285 285 284 284 287 286 287 289 289 291 291 291 291 291 291 292 293 295 295 294 293 292 293
290 289 288 286 284 283 283 282 282 281 280 280 280 281 282 282 282 284 283 284 286 287 287 288 289 291 292 291 291 291 290 291 292 295 294 292 292 292
287 287 287 287 286 284 284 282 282 280 280 280 280 279 280 281 283 283 283 282 280 288 286 286 289 289 290 291 290 289 289 290 290 294 294 292 292 291
287 286 285 285 285 284 283 282 282 283 282 282 280 281 281 282 282 281 282 282 282 285 285 283 287 287 289 290 290 289 288 289 289 290 293 292 291 290
287 286 285 285 283 281 280 280 281 282 283 282 282 281 282 282 282 282 282 283 284 285 286 281 286 286 289 290 290 290 289 288 289 289 291 292 291 291
286 286 285 283 281 280 279 278 279 280 283 283 282 282 283 284 284 283 282 281 280 281 285 283 285 285 287 288 290 290 289 289 289 289 289 292 291 290
286 285 282 280 279 278 278 277 277 279 279 279 280 282 283 284 284 284 284 281 281 280 284 282 283 284 282 288 289 291 291 288 289 289 289 292 292 292
283 283 284 280 279 278 278 277 278 278 278 279 280 281 282 283 283 285 285 284 282 282 286 284 283 283 283 283 287 289 291 291 290 290 289 290 293 293
282 283 283 280 278 278 278 278 277 277 280 279 279 279 280 280 282 284 286 286 287 286 287 286 284 283 282 282 282 287 289 292 292 291 291 291 291 291
283 282 280 279 278 279 279 278 277 279 278 277 277 278 280 281 283 284 285 286 286 288 287 287 286 285 284 282 282 285 285 289 291 291 292 291 292 292
283 283 281 280 279 278 280 281 280 280 277 277 277 279 280 281 281 283 282 283 284 285 287 288 287 286 284 284 284 284 286 285 289 290 291 292 292 293
280 281 281 281 280 281 281 280 280 280 278 277 277 277 278 278 279 281 281 282 281 282 283 285 287 286 286 285 283 285 285 286 288 289 288 287 289 292
280 280 281 281 280 279 279 279 280 279 278 277 277 277 276 277 277 279 280 280 279 280 281 284 285 284 284 285 284 284 286 286 288 288 287 286 287 290
279 280 281 281 281 280 280 279 278 279 277 278 277 277 276 276 277 278 278 278 278 279 281 283 283 280 279 279 282 283 283 287 287 286 287 287 286 287
280 280 280 281 281 280 280 280 279 279 278 277 277 277 277 276 275 276 277 277 277 278 279 281 280 279 278 278 282 282 282 285 285 285 285 287 285 283
281 282 283 282 281 281 281 280 279 278 277 277 277 276 277 276 276 275 276 276 276 277 276 277 280 282 283 284 282 282 282 282 283 283 285 285 284 285
283 282 283 283 283 282 281 281 279 279 278 278 277 277 277 276 276 275 275 274 275 275 276 278 281 282 282 282 281 281 282 282 282 281 281 281 282 281
284 283 284 284 283 282 281 280 279 279 278 277 277 277 276 275 276 276 276 275 275 275 275 276 279 281 281 280 279 281 281 281 282 282 281 281 281 282

GFSNE_sfc_thetae_036.txt.gz
Theta_e
294 294 294 294 291 290 290 289 286 281 281 284 285 287 288 287 289 289 288 292 293 293 293 293 293 293 294 294 295 296 296 297 298 299 299 300 303 306
294 292 292 291 290 290 289 289 288 285 281 284 285 285 286 288 289 288 287 291 291 292 292 292 293 294 294 294 294 295 294 295 296 297 298 299 300 303
292 291 290 290 289 289 288 287 285 284 281 283 284 285 284 284 285 286 287 286 287 291 291 291 292 292 293 294 294 293 293 293 293 295 296 298 299 301
290 289 289 291 287 286 284 283 283 282 281 279 281 282 282 283 284 284 286 287 286 289 291 291 291 291 292 293 292 292 292 292 292 293 294 296 297 297
289 289 288 286 283 283 282 280 281 283 281 279 278 281 281 282 282 284 284 284 287 289 289 290 291 291 291 292 292 292 292 292 292 292 294 295 295 295
289 288 286 285 282 280 280 279 280 279 279 278 278 279 280 281 282 280 280 282 282 286 288 288 290 291 291 292 292 292 292 292 292 292 293 293 293 293
286 286 285 285 286 283 280 279 278 278 277 277 277 278 278 278 277 280 280 281 281 283 283 283 286 286 288 290 291 292 292 291 291 292 293 293 292 292
283 284 284 286 285 285 285 284 281 277 276 276 277 276 277 279 280 278 278 277 276 282 282 281 284 284 287 289 289 289 290 289 291 290 293 293 292 291
283 283 283 285 282 280 281 281 281 282 281 279 278 278 279 278 278 277 277 277 277 280 280 278 281 281 286 288 289 289 290 290 289 289 290 292 291 290
283 283 281 281 278 279 278 277 278 278 279 280 278 277 278 279 279 279 279 279 280 281 282 277 278 280 283 284 289 290 290 289 289 289 289 290 291 291
284 283 283 281 280 280 277 276 276 277 281 282 281 281 282 284 284 282 279 278 276 278 282 279 278 279 282 282 283 289 290 290 289 289 289 289 291 290
282 282 281 279 279 279 275 274 273 275 276 276 277 280 281 282 284 283 280 278 278 277 281 280 280 281 279 281 281 283 283 288 288 289 290 289 291 289
280 279 280 280 280 279 278 275 275 277 276 276 278 278 280 281 280 281 281 281 280 279 283 283 279 279 279 279 281 284 285 283 282 283 289 289 291 292
279 279 280 281 281 280 278 279 279 278 275 274 275 276 277 278 280 280 282 282 284 283 285 285 282 280 279 278 278 282 284 284 281 280 282 288 291 290
279 281 282 281 281 279 281 280 276 275 273 270 273 274 276 279 280 280 281 282 283 285 287 285 282 281 279 278 278 278 282 285 280 282 284 286 282 287
280 280 279 278 276 276 275 278 277 275 273 271 271 274 276 277 277 279 278 279 279 280 284 285 285 284 281 279 280 279 282 281 285 279 284 287 288 283
276 275 275 277 277 276 276 276 276 276 274 272 271 272 274 276 276 277 278 278 277 277 278 282 285 285 283 282 278 280 281 281 283 284 281 279 281 283
275 273 272 274 274 274 273 274 274 274 274 273 272 273 273 272 274 276 278 277 276 276 277 280 282 281 282 281 283 279 282 278 282 283 281 278 278 279
274 274 275 276 277 275 274 274 272 273 273 273 271 271 271 274 273 274 275 275 274 275 277 279 279 277 275 275 280 283 277 281 285 283 280 278 284 284
278 276 277 277 278 276 275 275 273 272 271 272 269 269 268 270 272 272 273 273 273 275 275 277 277 277 276 276 278 279 283 282 281 281 281 282 281 284
279 278 278 278 280 277 275 274 271 271 270 267 269 270 267 270 269 273 269 271 272 274 273 274 276 279 281 281 278 279 276 282 280 278 282 281 280 278
279 281 280 279 281 279 276 275 275 271 270 271 270 267 270 267 269 269 268 267 271 272 273 274 277 279 280 279 278 276 277 276 280 282 282 280 276 278
280 280 280 280 280 279 277 276 278 273 274 271 270 269 266 266 269 270 270 269 271 270 272 271 275 278 279 279 277 276 275 275 277 277 275 281 282 282

GFSNE_sfc_thetae_039.txt.gz
Theta_e
291 293 293 291 291 290 289 288 286 281 281 283 281 285 285 285 287 286 286 289 292 292 291 292 291 292 292 293 294 294 296 296 297 298 298 299 300 301
291 289 289 290 289 290 288 288 286 284 278 280 281 282 283 285 287 285 285 289 290 290 291 292 292 291 291 292 293 293 294 295 295 295 296 297 298 299
288 288 288 289 288 286 284 283 281 280 277 279 281 281 280 281 283 284 285 284 285 289 290 291 291 291 292 292 292 292 294 294 294 294 294 295 296 297
287 287 287 288 283 282 280 279 278 278 277 276 277 279 279 280 281 281 284 286 285 288 290 290 290 290 290 291 291 292 292 293 292 292 292 293 294 294
288 287 286 283 280 279 279 278 278 280 277 276 276 278 279 279 280 281 281 282 285 287 288 288 289 290 290 290 291 292 292 292 292 292 292 292 292 294
285 284 284 282 280 279 279 277 278 276 276 276 276 276 277 279 279 277 279 280 280 284 285 286 288 289 289 289 290 290 291 292 293 292 291 291 291 293
285 285 283 285 288 282 279 277 277 276 276 275 275 276 276 277 277 279 277 278 278 279 280 281 282 283 285 287 289 289 290 292 292 292 292 292 292 293
281 282 282 285 284 285 283 282 280 276 275 274 276 275 276 278 279 276 276 274 274 279 278 278 281 281 282 284 289 287 288 290 290 291 291 291 292 292
281 281 281 283 281 279 280 280 279 280 279 276 275 276 275 276 276 276 276 276 275 278 278 277 280 278 282 285 288 289 289 289 290 291 290 289 290 291
281 281 280 279 278 278 277 276 276 277 277 278 276 275 276 277 278 279 278 278 279 280 281 277 280 278 281 281 286 288 290 290 290 290 289 289 289 291
282 282 281 278 280 280 277 276 275 276 279 280 280 281 282 282 282 281 278 277 275 277 279 279 277 276 277 277 281 287 288 289 290 289 289 289 289 291
280 280 282 279 280 279 275 274 272 274 276 276 276 277 279 280 282 280 277 276 276 276 280 280 279 277 275 277 281 282 281 285 288 290 289 289 289 290
279 278 278 281 280 281 280 275 273 276 277 276 275 276 277 278 279 280 279 279 277 277 282 282 281 278 279 278 279 281 280 284 284 282 288 289 289 290
279 278 278 283 282 281 280 279 280 278 271 272 273 274 274 275 277 278 279 280 281 280 283 285 282 280 279 276 276 279 280 283 284 281 278 285 290 290
278 279 281 283 282 281 281 281 278 274 271 267 270 271 272 275 277 277 279 279 280 282 283 283 283 283 282 279 277 278 278 283 285 283 282 286 286 286
278 279 277 278 275 275 276 278 276 274 272 271 269 271 273 273 273 275 275 276 277 278 281 282 282 283 282 279 279 278 279 281 284 284 280 286 286 286
272 275 278 273 274 276 275 275 275 274 272 269 268 269 272 273 273 274 275 276 273 275 276 279 282 282 283 283 278 276 277 278 281 285 280 284 283 286
278 273 269 267 270 274 274 273 272 272 272 271 268 270 270 270 272 274 275 273 272 273 275 277 279 278 279 280 283 280 276 277 280 282 278 277 279 282
273 270 267 268 271 275 276 274 272 272 272 270 269 267 268 271 270 272 271 272 272 273 274 276 277 276 274 273 280 282 277 281 283 281 276 276 282 283
276 273 272 272 274 276 277 274 272 271 270 269 266 263 262 266 266 270 271 265 271 273 273 274 274 275 275 275 276 278 282 280 280 277 275 280 281 284
277 277 275 275 275 276 275 274 270 268 266 264 264 264 263 265 265 268 268 267 267 273 271 271 273 276 279 281 277 276 276 282 281 277 281 276 278 278
277 277 278 277 277 277 278 275 271 268 267 265 265 266 260 262 263 264 265 265 268 267 271 272 275 277 278 279 277 277 276 275 280 281 282 280 277 275
279 278 278 278 278 279 277 277 276 273 272 271 269 264 259 263 264 264 263 268 268 267 268 269 272 275 276 277 275 276 275 273 276 276 276 281 282 282

GFSNE_sfc_thetae_042.txt.gz
Theta_e
290 289 290 290 289 289 290 290 287 281 279 280 279 283 283 283 285 284 283 287 289 289 289 290 290 291 291 292 293 293 294 295 296 297 297 298 299 299
288 287 288 288 288 289 287 286 285 282 276 278 279 280 281 283 284 283 283 287 287 288 289 289 289 290 291 291 291 292 292 293 294 295 296 297 297 297
288 288 288 287 285 283 282 281 279 278 276 277 278 279 278 278 281 282 283 282 283 287 288 288 289 290 290 290 290 290 291 292 293 294 295 296 296 296
287 287 286 288 283 282 280 279 278 277 277 275 276 276 277 278 279 279 282 284 282 286 286 287 287 288 289 290 290 290 291 292 292 292 293 294 294 295
286 284 285 284 281 281 280 278 277 280 277 275 276 277 276 277 278 279 280 279 283 285 284 285 286 287 288 288 289 289 290 290 291 292 292 293 292 292
285 284 284 283 281 280 279 277 278 276 276 275 276 276 276 278 278 277 278 279 278 281 282 283 284 286 286 286 287 288 289 290 290 291 292 291 291 292
284 284 284 284 287 283 279 277 277 276 275 275 275 275 276 275 276 277 277 277 277 278 278 279 280 281 281 284 286 287 288 289 289 290 292 291 291 291
282 282 282 284 285 286 284 283 279 275 274 273 274 273 274 275 276 275 275 274 274 278 278 277 280 279 281 282 285 287 288 289 289 289 290 291 290 290
281 281 281 283 282 280 281 280 279 279 278 274 273 273 273 275 275 275 275 276 275 279 278 277 279 278 281 283 285 287 288 289 289 289 289 290 289 289
282 282 280 279 279 278 277 276 277 276 277 277 275 275 275 277 278 279 279 279 279 278 278 276 279 278 281 280 285 287 288 288 290 290 290 289 289 289
282 282 281 279 280 282 277 276 276 276 278 280 280 281 281 281 281 279 276 275 274 276 279 277 277 278 280 280 281 286 288 289 288 289 290 290 289 289
280 281 283 280 281 281 276 275 272 274 275 276 276 277 278 278 280 279 277 275 275 274 278 278 278 280 275 276 278 280 280 284 287 288 288 290 290 285
280 279 279 282 282 281 281 275 273 276 276 276 275 275 276 277 277 278 278 276 275 275 279 280 279 281 280 277 278 279 277 280 280 282 285 288 289 288
280 281 280 282 282 282 281 280 281 278 272 271 272 273 273 274 275 276 277 278 278 278 279 280 279 280 279 279 276 278 278 281 280 282 278 283 287 289
281 281 281 282 283 281 282 282 278 274 271 266 271 271 272 273 276 276 277 277 277 279 281 280 279 279 280 280 279 277 277 280 284 284 283 284 284 286
280 281 280 278 274 275 275 278 276 274 273 272 269 270 271 272 272 273 273 274 275 274 278 280 280 279 277 281 281 277 277 278 281 283 283 285 285 286
281 278 276 275 274 275 275 275 275 274 273 271 268 268 270 271 271 273 273 274 271 272 273 277 280 280 280 282 279 280 279 279 280 282 281 284 284 284
279 276 276 275 274 274 273 273 273 272 273 272 268 269 269 268 269 272 273 270 271 272 273 275 276 276 277 278 282 279 278 277 278 284 281 280 281 284
279 273 276 273 273 273 275 274 274 274 273 272 271 269 267 269 268 269 270 270 270 272 273 273 273 273 271 269 278 282 278 280 282 280 278 281 282 283
280 276 275 273 273 274 274 274 275 271 271 271 268 265 261 265 265 267 269 264 268 271 272 273 272 273 272 271 273 273 282 277 275 279 279 281 282 284
280 278 277 276 274 274 274 272 271 270 270 266 267 265 259 264 263 265 265 265 265 271 270 270 272 276 278 279 274 274 274 281 281 278 280 276 279 278
279 279 279 277 276 275 275 273 270 270 270 268 265 263 259 261 262 262 261 262 267 266 269 271 273 275 276 277 275 274 274 274 279 281 281 280 277 274
281 280 279 278 278 277 276 276 274 273 274 273 269 268 262 262 264 262 261 264 267 266 267 268 270 273 273 275 275 274 276 274 275 276 275 280 282 282

GFSNE_sfc_thetae_045.txt.gz
Theta_e
288 289 289 289 289 289 289 289 287 281 278 280 279 281 281 281 282 282 281 286 287 288 288 289 290 290 291 291 292 293 294 294 295 296 296 297 298 299
288 288 288 287 287 287 286 286 287 282 276 278 278 279 279 282 282 281 281 286 286 287 287 287 288 289 290 290 291 291 292 292 293 294 294 295 296 298
288 288 287 287 286 284 283 282 280 279 276 277 278 278 277 277 279 279 281 280 281 285 286 287 287 287 288 288 289 290 290 291 291 292 293 294 296 297
287 286 286 288 284 283 281 280 279 278 277 275 276 276 276 277 277 277 280 282 281 284 285 285 285 285 286 287 288 289 290 290 290 291 292 293 293 295
287 286 285 284 281 281 280 279 278 279 277 275 275 276 276 276 277 278 278 279 281 284 283 284 285 285 286 286 287 287 288 288 289 290 290 290 291 292
286 284 284 283 282 280 279 278 278 276 276 275 275 275 275 277 276 276 276 278 278 280 282 282 284 285 286 286 286 287 288 288 288 290 290 289 290 292
284 284 283 284 285 282 280 277 276 275 275 274 274 274 274 274 274 275 275 275 277 278 278 279 280 280 281 283 284 286 286 287 288 289 289 289 290 291
283 282 283 285 286 287 286 283 279 275 274 272 273 272 272 273 274 273 274 274 274 277 277 277 280 279 280 281 284 286 287 287 288 288 289 289 290 291
281 281 281 283 284 282 284 283 281 281 278 274 272 272 272 274 274 274 275 276 276 278 278 276 278 277 280 282 285 286 287 287 288 288 289 289 288 289
281 282 280 281 281 280 278 277 277 277 277 276 275 275 275 276 276 278 278 278 277 277 277 274 278 277 280 281 284 286 287 288 289 289 289 290 289 289
282 281 282 280 282 284 278 277 276 277 279 280 280 281 281 281 280 275 274 274 272 274 277 276 276 277 279 279 281 285 286 288 287 288 289 289 290 289
280 281 285 282 282 283 277 275 273 276 275 275 276 277 278 277 279 277 275 273 273 272 277 274 276 278 276 276 277 281 280 283 286 287 288 288 289 287
281 281 281 284 283 283 282 276 275 277 276 275 276 275 276 276 277 277 276 275 273 273 277 277 275 277 278 278 276 279 281 279 279 281 285 286 287 288
281 281 281 283 284 283 281 281 282 278 274 273 272 273 272 273 275 276 276 277 277 276 278 278 276 277 277 275 276 277 279 279 277 283 285 284 285 288
282 282 283 283 284 282 283 282 279 276 273 268 271 272 271 273 275 275 276 276 276 277 279 278 278 278 278 276 277 279 278 278 277 282 284 283 283 283
281 281 282 281 280 279 278 280 276 275 274 273 271 270 271 271 271 272 270 272 273 272 277 278 278 278 275 277 278 280 279 278 279 281 283 284 286 286
283 281 279 278 277 278 277 276 275 274 272 270 269 269 270 271 270 271 272 272 268 270 272 275 277 278 277 278 278 280 279 279 279 280 284 283 283 284
281 279 278 277 276 277 276 276 274 272 274 272 270 270 270 269 268 270 271 268 268 270 271 273 273 273 276 276 282 277 278 278 280 282 280 278 281 283
281 279 277 278 277 277 276 275 274 274 274 273 271 270 270 269 267 268 268 268 267 270 271 272 272 272 270 270 275 282 277 278 279 281 280 280 280 282
282 281 278 278 277 277 276 275 274 273 271 270 268 268 266 266 265 267 267 263 266 269 271 271 271 272 271 270 272 272 281 279 276 276 280 279 279 283
282 281 281 279 278 277 276 275 274 272 268 265 270 269 265 266 264 265 264 264 264 270 269 269 271 274 276 278 275 274 275 280 281 278 277 272 278 277
282 279 280 279 278 277 276 274 272 270 268 268 268 270 266 264 265 263 259 260 266 265 267 270 272 273 273 275 274 274 277 275 278 280 281 280 277 272
282 281 279 280 279 278 276 275 274 272 272 271 271 270 266 263 265 263 260 263 266 265 266 267 269 271 271 273 273 273 272 274 276 275 274 280 281 282

GFSNE_sfc_thetae_048.txt.gz
Theta_e
289 289 289 289 289 290 290 289 287 282 280 283 283 283 283 283 283 284 282 284 286 287 287 288 289 289 290 291 292 292 293 294 294 295 296 297 297 298
288 287 288 288 288 288 288 288 289 285 280 282 281 282 282 282 283 283 281 285 285 286 286 287 287 288 288 289 289 290 291 292 293 293 294 295 296 296
288 287 287 287 286 286 285 284 283 282 279 280 280 280 279 279 280 280 281 281 282 285 285 286 286 286 286 287 287 288 289 290 291 292 292 293 294 295
287 286 286 287 284 283 282 281 280 280 278 276 277 278 278 279 279 278 280 281 282 283 285 285 285 285 286 286 286 287 288 289 289 290 291 291 292 293
287 286 285 285 283 281 281 280 279 280 278 277 276 278 278 278 278 279 279 280 281 283 283 283 284 285 286 286 287 287 287 288 288 288 289 290 290 291
286 285 285 283 282 281 281 280 279 277 277 276 276 276 276 277 277 276 276 278 278 280 281 282 283 284 285 285 285 286 287 287 288 288 289 289 289 290
285 284 283 284 286 284 281 280 278 276 276 276 275 275 275 274 274 276 275 276 277 279 279 280 281 282 282 283 284 285 286 287 287 288 288 289 289 290
284 283 283 287 287 288 288 286 281 277 276 274 274 274 273 274 275 274 274 274 273 280 278 278 281 280 281 282 284 285 286 287 287 288 288 289 289 289
283 282 282 283 285 282 284 286 284 283 278 276 274 274 273 275 275 274 276 276 276 279 279 276 279 278 281 282 284 285 286 286 287 288 289 289 289 289
282 282 281 281 281 281 281 280 279 279 279 278 277 275 275 277 276 277 277 277 277 278 279 274 278 278 280 281 284 285 286 287 287 288 289 289 289 289
282 282 282 282 283 285 280 278 278 278 281 282 281 280 281 281 281 277 274 274 272 274 277 276 278 277 279 281 283 285 286 287 287 288 287 288 289 289
281 281 285 283 284 284 281 278 275 277 277 276 276 278 279 278 279 278 276 273 273 271 278 275 276 277 276 281 281 283 284 285 285 286 287 287 288 288
282 281 281 284 285 285 284 278 277 278 277 276 276 276 277 277 277 278 277 276 273 273 277 277 276 276 276 277 280 281 282 283 284 284 284 286 287 286
281 282 282 284 285 285 284 282 281 279 276 275 274 274 275 275 276 277 277 278 278 276 278 278 275 276 276 275 275 280 281 283 283 282 284 286 286 286
283 283 284 284 285 284 284 283 281 279 276 274 274 274 275 276 277 276 277 277 277 277 278 278 277 277 277 275 275 277 279 282 283 282 283 284 285 285
282 284 281 281 281 283 282 283 281 279 277 276 275 275 273 273 273 274 273 274 274 274 277 278 277 277 275 276 277 277 281 279 282 282 282 284 286 285
282 282 282 280 280 280 279 279 280 278 275 275 273 272 272 272 273 274 273 273 271 271 273 275 277 277 277 276 275 279 280 280 281 281 282 282 285 285
281 281 280 279 278 279 278 278 278 277 277 275 273 273 272 272 272 272 273 271 270 271 272 273 274 274 276 278 281 279 279 279 281 282 282 280 282 284
282 281 280 280 279 278 278 278 277 277 277 275 274 272 272 272 271 271 271 270 270 271 272 273 272 272 271 270 276 281 278 279 279 279 282 281 280 283
283 282 281 280 280 279 278 278 278 277 275 274 272 272 270 271 270 270 271 268 269 270 272 272 272 271 271 271 273 276 280 279 279 278 278 281 281 281
280 280 282 282 281 281 279 278 278 276 274 271 272 270 268 270 268 269 269 266 266 271 270 270 272 273 274 276 275 276 279 280 281 279 279 277 278 280
280 280 281 282 282 279 279 278 277 275 273 271 270 270 268 268 269 268 266 267 270 270 270 271 272 273 274 274 274 274 276 278 279 280 280 281 279 276
272 272 279 282 280 279 279 277 276 275 274 273 272 271 269 269 268 269 267 267 269 269 269 269 270 271 271 273 272 274 274 275 278 278 278 280 281 282

GFSNE_sfc_thetae_051.txt.gz
Theta_e
299 299 297 297 298 297 297 296 292 287 286 290 290 293 293 292 290 289 289 287 286 287 287 287 288 289 290 290 291 292 292 293 294 294 295 296 297 298
297 297 297 297 297 297 296 296 294 290 286 290 290 291 291 289 288 288 288 286 285 285 286 286 287 288 288 289 289 289 290 291 291 293 293 294 296 296
296 296 296 296 295 295 295 294 292 292 288 289 289 289 288 287 287 288 286 285 286 285 285 286 286 286 287 287 287 288 288 289 290 291 292 293 294 295
296 295 295 294 294 295 294 292 291 291 288 285 287 286 286 287 287 285 284 284 285 285 284 285 285 285 285 286 287 287 288 288 288 289 290 291 292 293
296 295 294 294 293 293 292 291 290 288 288 285 285 286 285 286 285 284 283 284 284 284 284 284 284 285 285 286 286 287 287 287 288 288 288 289 289 290
296 295 295 294 293 293 292 290 289 287 287 285 284 284 285 285 283 281 281 283 282 283 284 284 284 285 285 285 285 286 287 287 288 288 288 288 289 289
295 294 294 294 292 292 290 290 288 287 285 284 284 284 283 282 281 281 280 281 282 284 284 284 285 285 286 285 286 286 286 286 287 287 288 288 288 289
294 295 294 291 290 289 288 287 287 286 285 284 283 282 282 282 281 280 280 279 277 284 282 282 284 283 285 286 285 285 285 286 287 287 287 288 289 289
294 293 293 290 289 290 287 287 287 286 283 286 283 283 282 282 280 279 280 279 279 282 281 279 283 282 285 285 285 285 286 287 287 287 288 288 289 288
293 293 292 292 291 289 288 288 287 288 286 284 285 284 284 283 281 281 281 281 281 282 282 277 282 282 284 285 285 286 286 286 286 287 288 289 288 288
292 292 291 291 289 287 287 286 286 286 285 284 283 283 282 281 282 282 280 279 278 279 282 280 281 280 282 283 286 285 285 285 285 286 287 287 288 288
291 291 287 288 286 285 287 286 284 285 284 283 283 283 282 283 281 282 281 278 278 277 281 278 279 279 277 283 284 285 287 285 285 286 286 287 287 289
289 289 290 286 286 286 286 287 285 286 284 283 283 282 281 282 282 283 282 281 278 278 281 280 278 278 278 278 282 284 285 286 287 288 287 287 287 288
288 290 290 287 285 286 286 286 284 283 284 283 282 281 281 281 282 283 283 282 282 280 281 281 278 277 276 276 277 283 284 286 287 286 287 288 287 287
289 289 287 286 285 285 285 285 284 283 283 282 281 281 282 283 283 282 281 282 281 281 280 281 280 279 279 277 278 280 281 284 287 286 287 286 286 288
286 287 286 285 285 286 285 285 285 285 283 282 282 282 283 281 281 282 280 280 279 279 280 281 280 280 278 279 279 280 282 281 285 284 285 286 289 289
285 285 285 284 283 284 284 284 285 285 283 282 282 281 280 280 280 281 280 279 277 277 278 280 280 280 280 280 278 281 282 283 284 284 284 284 287 287
284 283 284 284 283 283 283 282 283 283 283 282 282 281 280 280 280 280 279 279 277 277 277 278 278 279 281 282 282 281 282 282 283 284 284 282 283 287
283 283 284 284 284 283 283 282 281 283 283 282 281 281 281 280 279 279 279 278 277 277 277 278 277 277 276 276 281 281 281 281 281 282 284 284 283 285
280 282 284 285 285 284 283 282 282 283 282 281 281 281 281 280 279 278 278 277 277 276 276 278 277 276 276 276 276 280 281 281 281 281 281 283 286 283
274 274 275 279 282 283 284 284 284 283 282 281 281 281 280 279 279 279 279 275 274 275 275 276 277 276 278 279 277 279 282 281 281 281 280 281 282 284
271 271 273 274 276 283 284 284 283 283 282 281 280 280 280 279 279 278 278 277 276 276 276 277 277 277 278 277 277 278 280 281 282 281 280 281 280 278
269 270 271 272 273 276 276 283 283 282 281 280 280 280 279 278 279 279 279 277 277 276 275 275 276 277 276 276 276 278 278 279 281 281 282 280 281 281

GFSNE_sfc_thetae_054.txt.gz
Theta_e
301 303 301 301 301 300 299 298 295 291 291 294 294 297 297 297 296 295 293 292 289 288 287 287 288 289 290 290 291 291 292 293 293 294 294 295 296 297
302 302 301 300 300 300 299 298 297 294 290 294 294 296 296 294 294 293 292 290 290 289 287 286 287 288 288 288 289 289 290 290 291 292 292 293 294 296
303 301 299 300 299 299 299 298 296 295 291 293 295 295 294 293 292 293 292 291 290 289 288 286 286 286 287 287 287 287 288 289 290 290 291 292 293 294
300 300 299 298 298 299 298 297 296 296 293 290 293 293 292 293 292 291 290 289 289 289 287 286 286 285 286 286 286 287 287 288 288 289 289 290 291 292
300 299 299 298 298 298 297 296 296 294 293 291 290 292 292 292 290 290 289 289 288 288 287 287 286 286 286 286 286 287 287 287 287 288 288 289 289 290
300 299 299 298 298 297 296 296 294 293 293 290 289 289 289 290 289 287 286 287 286 287 288 287 286 286 286 286 286 286 287 287 287 288 288 288 288 289
299 299 299 298 296 295 296 295 294 292 291 289 288 287 287 286 287 287 285 285 286 288 287 288 288 288 288 288 288 287 287 286 287 287 287 288 288 289
297 298 298 296 295 291 291 290 292 293 291 289 288 286 286 287 288 286 284 283 281 288 286 285 287 286 288 288 288 286 286 286 287 288 288 288 288 288
297 297 296 295 294 296 292 288 288 287 286 292 289 287 287 288 288 285 284 283 283 286 285 283 286 285 287 287 288 286 286 286 287 287 287 288 288 288
296 296 295 295 295 294 294 293 293 291 292 289 289 290 290 289 288 286 284 284 285 286 286 281 285 284 287 288 287 286 286 286 286 286 286 287 287 288
294 295 294 294 292 291 293 292 291 292 291 288 288 287 284 282 283 285 283 282 282 283 286 283 283 283 284 285 287 286 286 287 287 286 286 287 287 288
293 293 290 291 289 288 292 291 289 290 290 289 288 286 285 286 283 284 284 281 281 281 285 282 282 282 280 285 286 286 287 287 287 288 288 288 288 289
288 289 292 289 288 287 287 290 290 291 289 288 287 287 287 287 286 285 285 284 282 281 285 283 281 281 281 281 283 284 286 287 287 288 288 288 289 288
286 289 290 288 288 288 287 287 286 286 288 288 286 285 286 285 285 286 286 286 286 284 285 284 281 281 280 280 279 283 285 287 287 287 288 288 288 288
287 287 285 286 286 285 286 285 285 288 287 285 285 285 286 287 286 286 286 286 285 285 284 284 283 282 281 280 280 281 282 284 288 288 288 287 287 289
285 288 286 285 285 285 286 287 286 287 287 285 285 286 287 285 284 284 283 283 282 283 284 284 283 282 280 281 281 281 282 282 287 287 287 287 289 290
283 286 285 286 287 287 286 287 287 287 286 286 286 286 285 284 283 284 282 282 281 281 281 283 284 284 283 282 279 281 283 284 285 285 285 285 288 290
283 283 285 286 286 286 286 286 286 284 285 285 285 285 284 283 283 283 282 281 281 281 281 282 282 281 282 284 284 282 283 284 283 284 285 283 285 288
279 279 280 280 281 286 286 286 285 285 285 284 285 285 284 284 283 282 281 280 280 281 281 282 281 280 278 277 284 282 281 282 282 282 283 283 283 286
277 277 277 278 278 280 282 285 285 285 284 284 285 284 285 283 282 281 281 280 280 281 280 281 281 280 278 278 278 281 282 282 282 281 281 283 286 285
275 275 275 275 276 277 279 281 285 286 286 285 284 284 284 283 283 282 281 280 280 280 278 279 281 277 280 281 278 281 284 283 282 281 281 281 281 284
273 273 274 274 275 275 276 278 279 284 285 285 284 284 284 284 282 281 281 280 279 280 280 281 281 280 280 279 278 280 282 283 284 282 281 280 281 278
271 272 272 272 274 274 274 275 275 278 283 284 284 284 283 282 282 282 281 280 280 280 279 279 280 280 279 279 278 279 280 281 282 283 284 280 280 281

GFSNE_sfc_thetae_057.txt.gz
Theta_e
301 300 300 304 305 302 301 299 296 292 292 296 296 300 299 299 299 297 296 295 294 292 291 290 289 289 290 290 291 291 292 293 293 293 294 294 295 296
299 298 300 304 303 302 300 299 298 295 291 295 296 298 298 297 298 296 295 295 293 292 292 291 289 288 289 289 289 289 290 291 291 291 292 293 294 294
297 299 303 303 302 301 301 299 297 296 293 295 296 298 298 297 296 296 295 294 294 293 292 290 289 288 288 287 288 288 288 289 290 290 291 291 292 293
298 302 301 300 301 301 300 299 298 298 296 293 296 296 296 297 297 295 293 292 292 292 292 290 289 288 287 287 287 287 287 288 288 289 289 290 291 291
302 301 300 300 299 300 300 299 299 297 297 295 294 296 295 295 294 294 292 293 291 292 291 290 290 288 287 287 287 288 288 288 287 288 288 289 289 290
300 300 301 300 300 300 299 299 298 297 296 294 294 293 293 294 293 290 290 292 290 289 290 289 290 290 290 290 289 288 288 288 288 288 288 288 288 288
299 301 301 300 297 296 297 298 298 296 295 293 292 292 291 290 289 290 289 289 289 289 288 288 289 289 289 290 290 290 289 287 287 287 287 288 288 288
298 298 299 297 297 293 293 292 294 295 294 292 292 290 291 290 291 289 288 286 283 289 287 286 288 287 288 289 289 288 287 287 287 287 287 288 288 289
296 297 296 296 295 297 294 290 291 290 288 293 291 292 290 291 291 288 287 286 285 286 287 284 288 287 288 288 289 288 288 288 287 287 288 288 287 287
295 295 296 296 297 295 295 295 295 295 294 292 291 292 293 293 291 290 288 286 286 286 287 283 287 286 288 288 288 289 287 287 286 287 287 287 287 287
294 294 294 295 292 291 291 291 292 293 293 291 291 291 287 285 285 288 285 284 283 283 287 285 285 284 285 286 288 287 287 287 288 287 288 288 288 288
289 289 288 288 287 288 290 290 289 290 292 292 291 290 287 287 283 286 285 283 282 282 286 284 283 283 280 285 286 288 288 287 288 288 288 288 289 289
285 287 288 286 286 287 286 287 287 290 289 291 291 291 290 289 289 287 286 284 283 282 286 285 282 282 281 281 284 287 287 288 288 289 288 289 289 288
283 285 286 286 285 285 285 286 286 285 288 288 288 288 287 287 288 288 287 287 287 286 287 286 283 281 280 280 280 284 286 287 288 288 288 289 288 288
283 284 283 284 285 285 286 285 285 286 285 284 286 287 288 289 288 287 288 288 287 287 285 285 285 283 282 280 280 281 282 284 287 287 288 288 288 288
281 283 282 282 284 284 285 287 289 286 285 285 286 287 289 287 287 287 285 285 284 284 286 287 286 284 281 281 281 281 282 281 286 287 287 287 287 289
280 282 284 284 284 285 286 288 288 288 285 286 287 287 286 286 286 286 285 284 282 281 282 285 286 285 284 283 281 282 282 283 285 285 284 284 287 289
279 280 280 280 280 280 282 283 287 286 286 286 287 286 285 285 285 285 284 283 281 281 282 283 283 282 283 284 285 282 283 283 284 284 284 283 283 287
278 278 278 278 278 278 280 280 281 284 286 285 285 285 285 285 284 283 283 283 281 281 282 284 282 280 278 277 283 284 282 282 282 283 283 283 281 285
277 276 276 276 276 276 277 278 279 281 282 285 285 285 285 285 284 283 283 282 281 281 281 282 281 281 279 278 278 282 283 282 282 281 281 282 285 285
275 275 275 275 275 275 276 276 277 278 280 280 285 285 285 285 284 284 283 282 281 281 280 280 281 279 281 280 278 280 284 284 284 282 281 280 281 282
274 273 273 274 274 274 275 276 275 276 277 279 281 285 285 285 284 283 283 282 281 281 280 282 283 281 280 278 278 281 281 284 285 283 282 280 280 277
272 272 272 273 273 273 273 274 273 273 275 276 278 279 284 283 284 284 283 282 281 280 280 280 280 281 279 279 278 278 280 281 282 282 283 282 281 282

GFSNE_sfc_thetae_060.txt.gz
Theta_e
299 299 299 299 300 302 299 297 293 286 288 292 291 295 295 295 294 292 291 297 296 294 294 293 293 293 291 291 291 292 292 293 293 293 294 294 295 295
298 298 298 298 300 301 299 297 296 292 288 291 291 292 294 295 296 292 292 296 295 294 294 294 294 292 291 290 290 290 290 291 291 292 292 293 294 295
297 297 297 299 300 298 297 297 294 293 288 289 291 292 291 291 292 292 293 290 290 295 294 294 293 291 290 290 289 289 289 289 290 290 291 292 292 293
296 296 298 302 299 299 297 294 293 292 290 288 290 290 290 291 291 289 292 292 289 293 294 293 292 291 291 290 289 289 289 289 289 289 289 290 290 291
297 298 300 299 297 297 297 295 293 296 292 291 290 290 290 289 288 289 289 288 291 294 293 292 292 292 291 291 290 290 289 289 289 288 288 288 289 289
299 298 298 298 297 296 295 293 294 292 292 291 290 289 288 289 288 285 285 286 285 290 291 289 290 291 292 291 291 290 291 290 289 289 289 288 288 288
298 299 298 298 297 296 296 292 291 291 291 289 288 288 286 285 285 287 286 285 284 285 283 283 283 284 285 289 290 290 290 291 290 290 288 288 288 288
295 293 294 295 295 293 292 292 292 291 289 289 289 287 287 287 287 285 285 284 280 284 282 280 283 281 283 284 289 289 289 288 288 288 288 288 288 288
291 291 292 294 292 293 292 291 290 290 287 289 287 288 287 288 289 286 284 284 283 282 280 278 280 280 283 287 289 289 289 289 289 289 288 288 288 288
290 290 289 288 289 288 286 285 286 288 290 290 287 288 288 289 289 287 287 284 281 281 282 276 280 280 282 282 288 289 288 287 288 288 288 288 287 287
288 287 287 285 287 288 284 283 284 286 289 290 291 290 290 291 289 287 283 279 275 279 281 279 279 279 280 280 281 288 288 288 288 288 288 288 288 288
282 283 285 285 286 286 283 282 281 281 282 284 285 287 289 287 287 286 284 282 279 277 281 277 279 278 274 278 280 281 281 286 288 288 288 289 288 285
279 280 281 284 284 284 284 281 281 283 283 283 283 284 286 286 285 284 283 283 281 280 282 278 277 278 276 276 277 280 280 280 281 283 287 289 289 288
279 279 280 282 283 283 283 284 285 283 283 283 283 282 283 286 287 285 284 283 283 283 283 282 278 278 276 274 275 277 278 279 279 280 280 286 288 288
279 280 280 281 282 282 284 285 283 283 282 283 283 283 284 287 287 285 285 283 283 283 285 284 280 280 277 275 276 277 277 278 280 280 281 283 280 283
278 277 278 279 279 280 280 281 282 283 282 284 284 284 286 285 285 285 283 282 280 278 283 283 282 281 278 278 277 277 276 275 279 280 284 278 279 282
275 276 277 277 277 277 277 278 279 279 279 283 284 284 285 284 284 285 283 282 280 278 279 281 282 283 281 279 276 278 278 278 280 282 278 278 280 281
275 274 273 273 273 274 274 275 275 276 278 279 282 284 283 282 283 284 283 280 280 279 280 280 279 279 279 280 283 279 278 281 277 279 279 278 278 279
272 272 270 271 272 273 273 274 274 275 277 277 278 281 280 280 280 282 282 281 280 280 280 280 280 277 274 271 277 284 276 276 275 275 280 281 279 279
273 272 270 271 272 272 272 272 273 274 274 274 276 277 281 278 277 281 281 281 280 280 280 280 279 279 275 272 270 273 283 274 275 274 276 280 279 282
272 272 270 271 270 271 271 271 272 272 272 272 274 275 275 281 282 281 282 281 281 280 279 279 279 279 278 276 267 269 275 284 281 276 278 277 275 276
270 270 270 270 270 270 270 270 270 270 271 271 272 273 274 274 280 277 280 282 280 280 280 280 279 279 277 277 273 269 275 277 282 284 283 280 273 269
267 269 269 268 269 268 269 268 268 268 269 271 271 271 271 271 274 276 281 282 281 279 279 278 278 278 278 277 275 273 273 272 276 276 275 282 282 282

GFSNE_sfc_thetae_063.txt.gz
Theta_e
299 299 299 299 300 300 300 299 293 289 286 289 290 293 292 292 294 295 291 296 296 296 296 297 296 295 295 294 293 292 292 292 292 293 294 294 295 295
299 298 298 299 299 300 300 298 295 292 288 289 290 290 291 293 293 292 291 296 296 295 295 295 295 295 295 293 292 292 291 291 291 292 292 292 293 294
298 297 298 298 298 299 297 296 295 294 291 290 289 290 289 289 291 292 292 292 292 295 294 294 294 295 295 294 292 291 291 290 291 291 291 291 292 292
297 297 296 298 299 299 298 296 295 294 293 290 289 288 288 290 290 289 291 293 290 293 295 295 294 294 293 292 292 291 291 290 290 290 290 290 290 291
297 297 298 299 297 296 295 295 295 296 291 290 291 288 288 291 291 290 290 289 290 294 294 294 294 294 293 292 292 292 291 291 291 291 290 289 289 289
298 298 298 295 293 294 295 291 292 289 289 289 288 287 287 289 288 287 285 285 286 291 292 290 290 292 293 293 292 292 292 292 292 291 290 289 289 289
297 298 296 296 296 295 295 292 290 290 288 288 287 288 285 283 283 286 284 286 285 286 285 284 283 283 283 289 290 292 292 291 291 291 291 290 289 289
292 290 290 292 291 290 288 288 287 284 282 282 285 285 286 284 283 284 286 285 284 286 285 282 283 281 282 282 287 289 290 289 289 289 289 289 289 288
287 287 288 288 287 286 286 286 285 287 284 283 283 283 284 285 287 285 283 286 285 285 284 282 280 279 281 285 289 289 289 289 289 289 289 288 288 287
285 284 283 283 284 285 283 282 282 283 284 285 284 284 285 288 287 287 287 286 287 286 282 278 278 278 279 281 287 289 288 289 288 288 288 288 288 287
283 282 282 281 285 285 281 279 279 280 284 286 286 286 286 287 287 286 285 285 282 280 280 278 278 277 279 278 280 287 288 288 288 288 288 288 288 288
279 281 282 282 283 283 280 279 278 279 281 281 282 283 285 284 286 286 286 284 282 279 281 279 277 277 274 277 279 279 279 284 286 287 288 288 288 285
278 278 278 281 281 282 283 280 280 283 283 283 283 283 284 284 285 285 285 286 283 280 280 280 275 276 275 275 277 279 278 278 279 281 285 286 287 287
277 277 278 280 281 282 281 282 282 281 281 281 281 282 282 283 283 286 286 286 286 284 282 281 277 277 275 273 274 277 276 277 276 277 278 283 286 287
278 278 279 280 280 279 280 280 278 278 277 277 278 279 283 284 285 286 286 285 285 283 284 282 279 279 277 275 274 275 275 277 277 275 276 278 279 280
277 276 276 278 276 276 276 277 276 275 275 276 276 278 283 283 284 285 284 283 280 278 282 282 281 280 277 277 277 276 275 273 275 275 280 277 276 278
273 273 274 274 274 274 274 275 274 274 273 274 275 276 277 282 284 284 283 282 279 277 277 280 282 281 279 279 274 276 277 276 277 278 278 275 275 277
273 269 265 263 267 271 271 271 272 272 273 273 273 274 275 276 281 283 283 281 280 279 279 279 280 278 279 280 282 277 275 276 277 280 277 275 277 277
269 268 263 262 265 271 270 270 269 271 272 272 271 272 273 276 275 280 281 281 280 279 279 279 280 278 276 274 278 284 278 276 273 273 275 275 275 278
272 269 266 266 268 269 269 269 269 269 270 270 269 270 272 273 272 273 279 279 279 280 279 280 280 279 277 273 271 273 282 273 273 271 272 276 277 281
270 270 267 267 267 268 263 265 264 266 267 268 268 269 270 271 270 272 273 280 279 280 279 279 280 280 280 277 269 269 273 283 280 275 273 274 272 275
267 268 268 268 263 264 260 261 266 264 266 266 266 268 268 270 269 270 271 272 278 281 280 281 280 279 277 277 273 267 272 273 280 283 283 281 274 269
262 264 263 259 260 261 266 264 263 263 265 265 266 266 267 267 269 269 269 271 273 279 280 279 279 278 278 277 275 273 272 269 274 275 274 281 283 282

GFSNE_sfc_thetae_066.txt.gz
Theta_e
301 300 299 300 301 301 300 299 295 290 291 289 289 293 293 292 293 295 294 298 298 297 298 299 300 299 298 297 297 296 295 293 293 292 292 293 294 295
300 299 299 300 299 298 298 299 297 295 291 290 289 290 292 293 293 293 294 297 297 296 296 297 298 298 298 297 297 295 294 293 292 292 292 292 292 293
299 299 298 299 298 298 298 298 295 294 292 294 292 290 288 289 291 291 292 291 293 296 295 295 296 296 296 296 296 296 294 293 292 292 292 292 292 292
297 297 298 299 297 298 297 297 296 294 293 291 293 287 288 289 290 290 292 293 291 294 295 296 295 295 295 294 295 294 294 293 292 291 291 292 292 292
297 297 297 298 298 296 294 292 293 296 293 289 290 289 288 288 288 289 290 288 291 294 294 294 294 295 295 294 294 293 293 292 292 292 292 291 291 291
297 297 298 297 293 291 291 289 289 286 287 286 286 287 285 286 286 285 287 285 287 291 293 293 294 294 294 294 293 293 293 293 292 292 291 291 290 290
297 297 296 294 292 289 286 283 282 281 281 281 281 282 283 282 282 284 284 285 287 285 285 287 287 289 289 292 292 293 293 293 292 292 291 291 290 290
293 289 288 287 287 288 287 287 285 280 279 278 279 280 281 282 283 284 285 285 283 284 285 286 287 285 286 286 288 289 290 291 291 290 290 290 289 289
284 283 285 285 284 283 283 283 282 283 282 279 278 279 279 280 282 282 283 283 283 287 282 283 281 285 285 285 288 289 290 290 290 290 289 289 289 288
282 281 281 280 282 281 280 279 279 279 280 281 280 281 281 282 281 282 281 282 282 285 287 282 280 283 282 281 287 289 290 289 289 289 289 288 288 288
281 281 281 280 282 283 280 278 278 280 283 285 285 286 286 286 286 284 281 280 279 281 287 285 280 280 279 279 280 287 288 287 287 288 289 289 288 288
279 280 281 280 281 282 279 278 278 278 279 281 282 283 284 284 285 284 283 280 281 281 281 281 280 279 277 277 278 279 278 283 285 285 286 286 287 283
278 277 277 280 281 282 282 279 278 278 279 277 278 279 280 281 283 284 284 283 281 282 283 283 279 277 276 276 276 278 278 277 278 279 283 285 285 285
277 277 277 280 281 281 279 279 279 278 275 274 276 276 276 277 281 284 285 285 285 285 286 284 280 277 275 273 274 277 276 276 275 276 277 281 285 286
278 278 278 279 280 278 278 278 276 275 273 272 273 274 275 277 279 282 285 286 286 286 285 284 281 279 278 275 274 275 275 277 276 274 277 277 277 279
277 277 276 277 275 276 276 276 275 274 273 272 272 273 274 275 276 278 281 284 283 281 283 283 281 280 276 277 276 275 275 274 275 275 275 281 277 277
273 273 274 274 273 273 274 273 273 272 271 271 271 270 271 273 274 277 277 282 280 278 279 280 281 280 279 279 274 276 276 276 276 276 277 275 274 277
275 272 269 268 269 271 270 270 270 270 270 270 270 270 270 270 272 274 275 277 279 279 278 279 280 280 279 279 281 277 275 274 275 277 278 274 276 278
272 270 266 265 267 270 270 269 268 269 270 268 268 268 269 270 270 271 272 272 277 280 279 279 280 279 275 271 279 283 276 275 273 272 275 274 273 277
272 270 268 268 269 269 268 268 267 266 265 266 266 265 266 268 268 269 270 270 271 276 280 280 280 279 276 274 274 274 283 275 273 270 271 273 277 280
270 269 269 269 268 267 264 262 259 259 261 261 261 262 265 266 266 268 269 269 269 272 278 279 280 282 281 277 271 269 273 281 279 274 272 271 272 273
269 269 268 268 265 264 260 257 257 257 260 262 260 262 260 263 265 266 268 267 268 270 272 279 282 281 277 277 274 268 272 273 278 283 281 280 273 270
267 267 266 262 261 260 263 257 258 257 261 263 263 264 262 263 265 267 267 267 268 269 271 276 279 279 277 277 275 273 273 270 273 274 273 280 282 282

GFSNE_sfc_thetae_069.txt.gz
Theta_e
306 306 301 301 301 301 300 299 296 291 290 294 290 292 292 292 293 292 293 297 299 299 299 301 303 304 303 303 302 300 299 299 298 296 295 294 294 295
302 301 300 300 300 300 300 298 297 295 291 294 291 291 291 293 293 293 291 298 298 298 298 298 299 301 301 301 301 299 298 298 297 296 295 294 294 294
300 300 299 299 299 298 298 298 297 295 292 293 291 290 288 289 290 290 291 290 293 296 297 297 297 297 298 298 298 298 297 296 296 295 294 293 294 293
299 299 298 299 297 298 298 297 296 296 293 288 289 287 287 288 288 288 292 293 290 294 295 296 297 296 296 296 296 296 295 295 296 295 293 293 293 293
298 298 298 297 297 298 296 294 293 293 288 285 284 286 286 286 286 287 288 288 290 295 294 294 295 296 296 295 295 295 294 295 294 293 293 292 292 292
298 298 297 298 296 294 292 287 285 282 282 281 280 281 282 284 283 282 284 285 285 290 292 292 293 294 295 295 294 295 294 293 293 293 292 291 291 291
297 298 294 292 291 290 284 281 280 279 279 278 277 278 277 278 278 280 282 283 284 285 286 287 288 289 290 294 294 294 293 292 292 293 292 291 291 291
293 289 288 288 288 287 286 286 283 278 276 276 276 275 275 277 278 279 279 278 277 282 281 283 285 287 286 285 290 291 291 291 291 292 292 291 290 289
287 286 284 284 283 282 283 282 281 282 280 277 275 276 277 278 279 278 278 279 279 281 281 279 282 283 286 287 290 290 290 291 291 290 290 289 289 288
283 281 280 280 282 281 279 279 279 279 280 280 278 278 279 282 282 282 282 282 282 283 283 279 282 282 284 286 289 290 289 290 290 290 289 289 289 288
281 280 280 279 282 282 280 279 279 280 282 282 283 284 284 285 284 282 281 280 278 279 280 280 281 283 281 282 281 288 289 290 289 288 288 289 289 288
279 279 281 280 281 282 279 278 277 277 277 278 277 279 280 281 282 281 282 279 279 278 280 279 281 279 279 281 280 281 283 287 286 286 286 286 286 282
278 277 277 280 281 282 280 278 277 277 276 275 275 276 277 277 278 279 280 281 281 280 283 282 280 280 280 277 278 279 279 278 278 279 284 284 285 284
278 277 278 280 281 280 278 278 277 276 274 272 273 273 273 274 275 276 278 279 281 283 285 285 281 279 279 276 276 278 277 275 275 276 277 281 284 284
278 278 278 279 279 278 277 277 275 273 272 270 271 272 273 273 275 276 277 278 281 285 286 285 284 282 280 278 276 276 276 276 275 274 274 277 276 280
277 278 277 278 276 276 275 275 274 273 271 271 270 272 272 272 272 273 274 275 276 282 284 285 284 282 279 278 278 275 274 273 275 275 275 276 279 278
276 276 275 274 273 273 273 272 272 272 270 270 270 269 270 270 270 271 272 272 273 275 280 282 283 281 280 279 275 276 275 275 277 276 277 278 274 278
275 272 269 268 270 271 270 270 270 269 269 269 268 268 267 267 268 269 271 271 271 272 275 280 281 279 280 280 281 276 274 275 276 278 278 278 276 277
272 270 266 266 268 270 269 269 268 269 269 267 266 267 266 266 267 267 268 269 269 271 272 275 280 279 276 273 276 283 275 275 275 274 276 276 273 276
272 270 268 269 269 268 268 267 267 267 266 265 264 264 261 264 265 264 266 266 268 269 270 273 279 280 278 272 275 274 283 275 274 272 271 273 276 280
271 270 269 269 268 267 266 265 263 263 262 259 260 259 255 263 263 263 264 265 266 268 268 270 273 276 282 279 275 273 275 281 279 275 274 271 272 272
269 269 269 268 267 266 264 261 261 260 259 258 258 254 257 258 261 262 263 264 265 267 268 271 274 275 280 278 276 273 272 273 278 282 280 279 273 269
268 268 267 265 265 264 264 262 259 255 257 259 259 261 258 260 262 263 263 265 265 266 267 269 271 273 279 279 276 274 272 271 274 274 274 281 282 282

GFSNE_sfc_thetae_072.txt.gz
Theta_e
309 307 307 306 304 303 302 301 299 293 293 295 294 295 296 296 295 295 294 296 298 298 299 301 303 305 305 306 306 306 306 304 303 302 300 300 298 297
306 305 303 302 302 302 301 300 299 296 293 294 293 294 295 294 295 295 293 297 297 297 297 298 299 301 302 303 303 304 304 303 302 300 300 299 298 297
303 303 301 301 300 299 299 299 297 297 293 295 295 293 292 291 292 292 293 292 292 294 296 296 297 297 298 298 299 300 301 302 301 299 300 299 299 297
302 301 300 300 299 299 298 297 297 296 294 292 292 291 290 290 290 289 290 292 292 293 294 295 295 295 296 296 296 297 298 298 298 298 298 297 297 295
301 300 299 299 297 297 298 296 294 294 291 289 287 287 287 287 286 287 287 288 288 290 291 292 292 292 293 294 295 296 296 296 296 296 295 295 293 293
300 299 299 298 297 296 293 291 287 285 284 282 281 282 283 284 283 281 281 284 283 286 287 288 290 291 292 292 293 294 295 295 295 294 293 291 290 292
299 298 296 295 293 293 288 284 284 282 281 279 278 279 277 278 278 280 280 281 282 283 283 285 286 286 286 288 289 291 293 294 294 294 293 290 290 291
291 289 289 289 287 287 286 285 283 279 278 277 277 277 277 278 279 279 279 278 277 283 282 282 284 283 284 285 288 289 291 293 293 292 290 290 291 291
287 285 285 286 285 283 283 282 282 283 280 279 277 278 278 279 280 279 280 279 279 282 283 280 283 282 285 286 287 289 291 291 292 291 291 291 290 289
286 284 283 282 282 281 280 280 280 281 281 281 280 280 280 281 281 282 281 281 282 283 284 278 283 282 285 286 287 289 290 290 289 290 290 290 288 288
282 282 282 281 283 283 280 279 279 280 281 281 281 281 281 282 282 281 279 278 277 280 283 281 282 282 284 284 285 286 288 289 290 290 290 289 289 288
281 281 281 280 282 282 280 279 277 277 277 277 277 278 279 280 280 279 279 276 277 277 282 280 281 282 280 282 282 283 285 288 289 289 287 287 287 286
278 277 279 281 282 282 280 279 277 277 276 276 275 276 277 276 277 277 278 276 275 275 280 281 282 282 281 281 281 282 282 283 283 284 285 285 285 285
278 277 278 281 282 280 279 278 277 276 275 274 273 273 273 274 275 275 276 277 278 278 280 279 279 282 280 279 278 280 281 281 281 282 282 282 283 285
279 279 280 281 280 278 278 277 275 274 272 271 271 271 273 274 274 274 275 276 277 278 280 282 284 284 282 281 279 279 279 281 280 281 281 281 282 283
278 278 278 278 277 276 276 275 274 273 272 271 270 271 272 272 271 272 271 273 273 274 278 280 284 284 282 282 280 279 279 279 280 280 280 281 281 282
277 276 275 275 274 274 274 273 273 272 271 271 270 269 269 269 269 271 271 271 270 271 272 276 279 284 283 281 278 279 279 279 280 280 279 280 281 282
275 273 271 271 271 272 271 271 271 270 270 269 269 268 267 267 267 268 269 268 268 269 271 273 275 277 280 281 282 280 279 279 280 280 280 279 279 282
273 272 269 269 269 271 271 270 269 269 269 268 267 266 266 266 265 266 266 266 266 268 269 271 273 273 276 276 280 284 281 279 279 278 280 279 279 281
273 270 269 269 270 270 269 268 268 267 267 266 265 265 264 264 264 264 264 264 265 266 268 270 271 273 271 274 276 280 284 280 278 278 277 278 280 280
272 271 270 270 269 269 268 267 265 265 265 263 263 262 262 262 262 263 263 262 263 265 266 267 270 273 274 276 276 276 279 283 281 280 277 277 277 277
271 270 270 270 268 267 266 264 264 264 263 263 262 261 259 260 260 261 261 262 263 265 266 268 270 272 273 272 275 275 278 278 280 282 281 281 278 276
269 269 268 267 266 266 265 264 263 261 261 261 260 261 258 259 261 262 262 263 264 264 264 266 268 270 271 272 277 278 276 275 277 277 279 280 282 281

GFSNE_sfc_thetae_075.txt.gz
Theta_e
320 320 314 311 309 308 307 306 305 301 304 305 305 304 306 307 302 305 305 299 297 297 298 299 300 301 302 303 304 305 306 307 308 307 306 305 305 305
315 313 311 306 306 306 305 306 306 305 302 307 303 303 302 302 301 304 302 297 297 295 296 296 297 298 299 299 300 300 301 302 303 305 305 304 304 303
312 313 309 305 304 304 304 303 303 302 300 301 300 301 301 303 302 302 299 298 297 295 294 295 295 296 296 296 297 297 297 298 299 300 302 302 303 303
308 308 307 304 304 303 302 302 303 301 298 296 296 301 296 300 298 296 293 291 291 291 292 292 292 292 292 292 293 293 294 295 296 297 299 300 300 301
309 307 305 303 300 301 301 300 299 298 295 293 291 297 294 296 294 290 289 289 289 289 290 290 290 289 290 291 291 290 290 291 293 295 296 296 297 297
305 305 303 303 300 301 299 296 293 289 290 287 287 291 292 292 288 286 286 288 287 288 288 288 288 289 289 289 289 289 289 290 291 293 293 293 293 294
301 301 300 300 297 297 294 293 289 287 286 284 286 287 287 285 285 287 285 286 287 289 288 288 289 290 291 290 290 290 289 289 290 292 293 293 291 291
294 293 292 293 290 289 288 288 288 285 284 285 285 284 284 285 286 285 284 283 282 290 287 286 289 288 290 291 289 289 288 289 290 292 293 292 289 288
291 289 287 287 286 286 284 284 283 283 283 286 284 284 283 285 284 284 284 284 284 286 286 284 288 287 290 290 289 289 289 290 290 291 292 290 289 289
288 288 286 284 284 283 282 281 282 283 284 284 285 284 284 285 284 284 284 284 285 286 287 282 287 286 289 290 289 290 289 288 290 290 289 289 290 290
285 285 284 283 283 284 282 281 281 282 282 281 280 280 280 281 282 283 282 280 280 282 285 284 285 285 287 288 290 289 287 287 288 289 290 291 290 288
282 282 283 283 283 282 282 281 280 281 280 280 281 280 280 281 279 281 281 279 279 279 286 283 283 283 283 288 289 290 290 289 288 289 290 290 289 289
280 280 281 283 283 282 282 282 281 280 278 279 278 279 279 279 279 279 279 279 278 279 282 282 281 281 281 283 286 289 289 289 291 290 287 287 287 286
279 280 281 283 282 281 281 279 277 278 279 278 277 276 276 276 277 277 278 278 280 279 281 281 279 280 280 281 283 287 288 289 289 288 288 286 284 284
280 281 282 282 280 279 279 277 277 277 277 276 275 275 275 276 276 277 277 277 278 278 279 280 281 281 281 283 283 284 284 287 288 288 288 287 287 287
280 281 281 280 279 278 278 277 277 277 275 275 275 275 275 275 275 275 274 275 274 276 279 279 280 280 279 283 285 284 285 284 287 287 287 287 287 287
279 280 279 278 277 277 276 276 276 276 275 275 274 273 273 273 273 273 273 273 272 273 274 277 279 280 280 282 283 284 285 285 286 286 284 284 286 287
278 277 276 276 275 275 276 275 275 273 274 273 273 272 271 271 271 271 271 272 270 271 272 275 276 277 280 283 285 284 284 284 285 286 285 283 283 286
277 276 275 275 274 275 275 274 273 273 272 271 271 270 269 269 269 269 269 270 269 270 271 273 274 275 274 275 281 285 284 284 284 284 285 284 283 285
276 275 275 275 275 274 274 272 272 271 271 270 270 269 268 268 268 268 268 268 268 269 269 272 274 274 273 273 273 277 282 284 285 284 284 285 286 281
276 275 275 275 274 273 272 271 270 269 269 268 268 267 267 267 266 267 267 266 266 267 268 270 273 273 274 275 274 276 281 283 285 285 285 283 282 282
275 274 274 273 272 271 270 269 268 268 267 267 267 267 267 267 266 266 266 266 267 268 268 271 272 273 273 273 273 275 278 283 283 282 283 283 282 279
272 272 271 270 270 269 268 268 267 267 266 266 266 266 266 265 266 266 266 267 267 267 268 268 270 272 272 272 273 274 275 281 282 281 282 280 281 281

GFSNE_sfc_thetae_078.txt.gz
Theta_e
327 327 326 323 325 323 315 311 307 300 303 309 311 312 310 309 306 309 310 299 298 298 298 298 299 299 300 300 301 301 302 303 303 304 305 306 307 307
326 323 323 322 319 314 313 314 310 307 304 313 310 310 311 309 303 307 309 299 299 296 295 295 295 295 296 296 296 296 297 297 298 298 300 301 303 304
323 322 318 315 313 313 310 310 308 310 307 306 311 309 306 307 304 305 306 305 304 296 294 293 294 294 293 293 293 292 293 293 294 294 295 296 298 300
319 315 315 311 310 309 308 309 307 307 305 305 304 305 304 304 301 304 302 300 298 294 292 291 291 291 291 291 292 292 292 291 291 292 293 294 296 297
318 313 311 308 309 307 305 307 305 303 304 306 298 298 296 299 297 299 298 295 293 293 291 291 292 291 290 290 291 290 290 290 291 291 291 291 293 295
317 311 311 309 308 305 303 304 303 301 297 298 295 294 294 295 293 292 292 293 292 292 292 289 290 291 291 291 291 291 291 290 290 290 291 290 291 293
312 310 309 307 302 302 302 299 296 295 293 294 291 289 289 289 288 291 289 290 291 292 292 293 293 293 294 293 292 292 291 290 290 290 291 291 292 293
305 301 301 299 296 294 295 293 294 292 292 292 290 286 288 289 288 289 289 287 287 294 291 290 292 291 293 293 291 290 290 291 290 290 290 291 292 291
300 294 293 292 292 288 287 285 284 284 285 288 287 288 287 289 288 288 288 288 288 291 290 287 292 290 292 291 291 291 291 290 290 290 290 290 290 289
294 293 289 287 286 285 284 283 283 283 284 284 286 286 287 288 289 288 288 288 288 288 290 285 290 289 292 292 291 291 291 289 289 288 289 290 290 289
289 288 287 285 285 286 283 282 282 281 283 282 282 281 281 281 282 286 285 284 283 285 288 285 288 288 288 289 292 291 289 289 289 289 290 289 289 290
285 284 285 284 284 284 283 282 281 280 281 281 281 281 281 283 280 282 284 282 283 282 288 284 285 284 284 288 290 291 292 290 289 289 290 290 291 291
282 282 283 283 283 283 284 284 283 283 280 283 283 283 284 283 284 284 283 282 281 282 285 284 283 283 282 283 286 288 291 291 291 290 290 290 290 289
281 281 283 283 282 282 281 280 279 281 282 282 281 281 281 281 282 282 282 282 282 281 282 282 281 281 281 280 281 286 289 291 291 289 291 290 287 286
281 282 283 282 281 280 279 278 279 281 281 280 280 280 280 280 280 280 281 281 281 281 280 281 281 281 281 280 280 283 286 289 290 289 290 290 289 288
282 282 282 281 282 280 278 279 281 281 280 280 279 280 280 279 278 279 278 278 277 278 281 281 280 280 279 280 280 282 286 285 289 289 289 290 289 289
281 281 280 280 279 280 280 280 280 279 279 279 278 278 277 277 277 278 277 276 275 276 276 278 279 280 280 280 279 281 284 286 288 288 287 286 288 288
281 280 280 281 280 279 279 279 279 276 278 277 277 276 275 275 275 276 276 275 274 275 275 276 277 277 278 280 283 283 285 286 287 288 287 284 284 288
280 280 280 280 279 279 279 278 277 277 275 275 274 274 274 273 273 273 274 274 273 274 274 275 275 275 274 274 280 284 283 285 287 286 286 286 285 286
279 279 278 278 278 277 277 276 275 275 274 274 273 273 272 271 271 271 272 271 272 272 272 274 274 275 275 274 274 277 279 279 280 284 285 287 287 282
278 277 277 277 276 275 275 274 273 273 272 271 271 271 271 270 270 270 271 269 269 270 271 272 275 275 275 276 273 275 281 283 281 282 285 285 283 284
276 276 275 275 274 273 273 272 272 272 271 271 270 270 270 270 269 269 269 269 270 270 270 272 274 274 274 272 272 274 277 281 283 283 283 283 285 281
274 274 273 273 272 272 271 271 270 270 269 269 268 268 268 267 268 268 268 269 269 269 269 269 271 272 272 272 273 274 275 277 279 279 283 282 282 282

GFSNE_sfc_thetae_081.txt.gz
Theta_e
325 327 325 326 327 326 326 323 316 308 306 311 308 314 316 315 307 308 311 301 301 299 299 299 299 299 299 299 299 300 300 300 300 300 301 301 302 303
327 326 326 326 326 326 324 321 317 310 306 310 313 316 314 310 305 310 311 301 300 299 297 296 295 294 294 295 295 294 295 295 295 296 296 297 297 298
325 325 324 324 321 320 321 316 313 310 307 311 314 314 310 311 305 307 309 308 306 298 296 295 293 293 292 292 292 293 293 293 294 294 294 295 296 297
324 324 323 320 320 320 315 312 310 311 308 307 307 309 310 310 307 306 306 305 303 298 295 292 291 292 292 292 292 291 292 292 292 292 292 293 293 294
325 324 320 321 317 315 311 309 309 310 309 307 304 304 304 304 304 301 298 298 297 296 292 292 292 292 292 292 291 291 291 291 292 292 291 291 291 292
325 323 319 320 318 312 309 309 308 306 305 305 298 299 297 298 297 295 292 295 292 294 294 291 292 293 292 292 292 292 292 292 292 291 291 290 290 291
322 320 318 317 307 308 308 307 303 301 299 298 292 293 291 291 291 292 289 289 290 294 294 294 294 294 295 292 292 293 293 293 292 291 291 291 290 291
317 316 313 305 304 299 297 297 301 300 296 294 292 291 290 291 289 287 287 286 287 296 294 292 295 293 294 295 293 291 291 291 291 291 291 290 290 290
315 314 305 301 297 294 288 287 288 288 288 292 289 288 287 288 288 288 289 289 289 292 293 290 293 291 294 293 292 292 291 291 291 291 290 290 289 290
313 307 300 294 292 289 288 285 285 285 285 287 287 287 287 288 290 289 289 290 290 290 291 286 291 290 293 294 293 292 292 291 291 290 290 289 289 290
292 292 292 288 288 289 286 284 283 283 284 284 284 283 283 283 283 288 286 285 285 286 290 289 288 287 291 290 290 291 291 291 291 290 290 289 290 290
287 287 287 286 286 286 285 283 281 280 280 280 280 280 281 282 281 283 284 283 283 283 288 287 286 286 283 289 290 291 290 291 290 290 290 290 290 290
283 283 284 285 285 285 284 284 282 282 282 283 283 283 284 285 284 283 284 283 282 281 286 284 283 283 282 282 284 287 287 288 290 292 290 290 290 290
282 282 283 284 283 282 281 282 283 283 283 283 282 281 282 282 283 284 284 283 283 282 283 283 280 280 280 280 279 284 285 287 289 290 291 291 290 290
283 283 282 282 281 280 280 279 282 282 281 280 281 282 282 282 281 281 282 282 282 282 282 282 281 280 280 279 280 281 281 284 286 288 290 290 289 289
281 281 281 281 280 279 278 280 281 281 280 280 280 281 281 281 280 280 279 280 279 279 282 283 282 281 279 279 280 280 282 280 285 286 289 290 290 291
281 281 280 280 279 280 281 281 280 280 279 279 278 278 279 279 278 279 278 278 276 276 277 280 281 280 280 279 277 279 280 281 284 285 287 287 289 289
282 280 280 281 281 281 280 280 279 278 278 278 277 277 276 276 276 276 276 275 274 275 275 277 277 277 277 279 281 279 281 282 284 283 285 285 286 288
282 281 281 281 279 279 278 278 278 277 276 276 275 275 275 274 274 273 274 274 273 274 274 276 276 275 272 272 278 283 280 279 279 279 282 283 285 286
280 279 279 279 278 277 277 276 276 276 275 274 274 273 273 272 272 271 272 271 272 272 272 273 274 274 273 272 273 276 278 277 277 278 279 280 287 284
279 278 278 278 277 276 276 275 274 274 273 273 273 272 272 271 270 270 270 270 270 270 270 271 273 275 276 276 273 274 278 281 281 280 280 280 280 282
277 276 276 275 275 274 274 274 273 272 272 271 271 270 270 270 269 269 269 268 269 269 270 271 273 273 273 272 271 272 275 278 281 281 281 281 279 280
274 274 274 273 273 272 272 271 271 270 270 269 269 269 268 267 268 268 268 268 268 268 268 269 270 271 271 271 271 272 272 274 277 278 280 283 283 283

GFSNE_sfc_thetae_084.txt.gz
Theta_e
318 318 318 318 318 320 317 316 312 306 305 309 311 313 316 312 311 306 305 302 301 302 304 303 303 303 302 301 301 301 301 301 300 299 299 298 299 299
320 318 318 319 320 319 318 318 317 313 309 311 310 310 312 313 305 305 305 302 300 299 300 299 299 299 297 297 297 296 296 296 296 296 296 296 297 297
318 318 318 319 318 319 319 318 317 314 311 312 310 311 311 308 301 303 303 301 299 298 298 297 296 295 294 293 293 293 293 294 294 294 295 295 295 296
317 318 318 318 318 319 316 316 315 316 311 308 309 308 306 308 303 301 304 305 302 299 298 296 295 293 292 292 292 292 292 292 293 293 293 293 293 294
317 317 317 317 316 318 318 315 313 311 311 309 307 303 305 304 302 302 301 298 297 299 296 294 293 293 293 292 292 292 292 293 293 292 292 292 291 292
318 318 318 317 317 317 315 313 311 309 308 307 306 300 298 298 300 296 294 295 294 295 294 292 292 293 293 292 292 293 293 293 293 293 292 291 291 291
319 318 317 315 309 313 315 313 310 307 306 304 298 294 292 292 295 294 294 291 291 292 290 290 290 290 290 293 292 293 293 293 293 293 292 291 291 291
316 316 317 306 306 301 301 301 306 306 304 302 302 298 297 294 291 289 287 285 284 291 289 288 289 288 290 290 293 293 293 293 293 293 292 291 291 290
316 315 311 306 302 303 292 291 290 289 289 302 299 292 288 288 288 286 285 285 285 289 289 284 288 286 289 291 292 292 292 292 292 291 291 291 290 289
311 309 309 300 299 294 290 289 288 286 287 288 288 287 287 289 289 287 286 287 288 289 288 281 284 283 287 288 291 293 292 291 291 291 291 290 290 289
294 294 296 292 291 292 288 285 284 283 286 286 286 286 285 285 285 286 283 283 282 282 286 284 283 282 283 284 286 290 290 290 290 290 291 290 290 289
286 286 287 287 287 288 287 285 281 280 281 281 281 282 283 283 282 283 282 282 282 280 283 282 282 281 278 281 283 284 284 288 289 289 289 291 290 287
284 284 284 285 286 286 285 283 281 281 281 281 282 282 282 282 283 282 282 282 281 280 283 280 279 279 278 278 280 281 281 282 283 285 288 290 290 289
283 283 284 284 284 284 283 283 282 282 282 281 281 281 281 281 282 282 282 282 282 281 282 281 278 277 276 275 275 279 280 282 282 282 283 287 290 289
282 283 283 283 282 281 282 282 282 281 281 280 280 280 280 280 280 281 281 281 281 281 281 281 279 278 277 275 275 277 278 279 281 282 282 283 285 285
281 280 280 279 279 280 280 281 280 279 279 279 279 279 280 280 279 280 279 279 278 278 280 280 280 279 277 277 277 275 277 275 278 279 281 282 283 287
280 279 278 278 278 279 280 279 279 279 278 278 278 278 278 278 277 277 276 275 273 274 275 277 279 279 279 277 274 275 275 275 277 278 280 280 282 284
280 279 279 280 279 279 278 278 277 277 277 276 276 276 275 274 274 275 275 273 273 273 273 275 275 275 275 276 279 275 276 276 278 279 278 277 277 281
280 279 278 277 277 278 277 276 274 275 276 275 274 273 273 273 272 271 271 271 271 272 272 273 273 272 269 267 274 279 274 274 274 273 275 275 275 278
278 277 276 276 276 275 275 274 274 273 272 271 270 268 267 269 269 269 269 268 268 269 269 270 271 271 270 268 268 271 277 274 273 272 273 275 278 282
276 275 275 274 274 274 273 272 272 270 268 267 269 269 266 267 265 267 267 265 266 268 267 268 270 273 272 272 268 268 272 277 277 274 274 273 274 276
274 273 273 273 272 272 271 270 268 267 267 267 264 262 263 264 262 262 262 263 266 266 267 269 270 270 269 269 267 268 270 272 276 277 278 278 274 272
271 272 271 271 270 269 269 267 266 263 264 263 263 263 258 259 263 262 262 264 266 266 266 266 267 269 268 268 267 267 268 269 271 272 274 279 280 282

GFSNE_sfc_thetae_087.txt.gz
Theta_e
316 316 316 316 317 317 315 315 312 306 302 307 310 313 314 314 312 313 311 306 304 303 304 306 307 308 307 307 307 306 306 305 304 303 302 300 299 299
317 316 316 315 317 318 317 316 314 312 308 308 311 312 312 315 315 313 309 304 301 300 301 302 303 304 304 304 303 303 302 301 300 298 298 297 298 298
316 316 315 315 315 316 317 317 316 315 311 312 309 309 310 309 309 307 307 305 302 299 299 299 299 299 299 299 299 299 297 296 296 296 296 296 296 296
316 316 316 316 315 315 315 315 315 316 313 310 311 307 309 310 309 304 305 306 302 299 298 298 297 297 296 295 294 294 293 293 294 294 294 294 294 294
314 314 315 315 314 316 315 315 315 315 314 313 311 308 309 306 302 301 302 302 301 301 297 296 296 296 294 293 293 293 293 293 293 293 293 293 293 293
313 313 315 315 315 315 315 315 315 314 312 311 310 309 302 302 304 302 298 297 298 300 298 297 295 295 294 294 293 293 293 293 293 293 292 291 291 292
313 314 314 314 309 311 315 315 315 313 311 309 308 304 299 294 299 301 300 298 293 293 292 292 291 291 292 293 292 293 293 293 293 293 293 292 291 291
313 314 315 306 306 301 302 304 311 313 310 308 307 304 301 302 304 299 296 287 288 292 290 290 292 290 290 290 292 292 293 293 293 293 293 292 292 291
314 314 314 314 305 310 298 296 292 291 289 306 306 306 303 297 290 287 286 286 285 289 289 285 289 288 291 292 292 292 293 293 293 293 293 291 290 290
314 314 313 310 305 305 298 291 286 286 287 288 288 287 288 289 289 288 287 286 286 287 288 283 286 285 287 289 291 292 292 292 292 291 291 291 290 290
301 296 305 303 294 296 291 286 284 283 287 288 287 287 287 288 288 287 284 284 282 283 286 284 284 284 284 285 287 290 290 289 289 290 290 290 290 290
287 287 288 290 289 289 288 285 282 281 282 282 281 283 284 284 284 285 284 282 282 281 282 281 281 281 280 282 282 283 283 285 285 287 287 288 289 287
285 284 286 287 287 287 286 284 282 281 281 281 281 282 282 283 282 282 283 282 281 280 281 280 279 279 279 278 279 280 280 280 281 282 285 286 287 287
284 284 285 285 285 284 283 283 283 282 282 281 281 281 280 280 280 281 282 281 282 281 281 281 278 278 276 274 274 277 278 279 280 280 281 283 285 286
284 284 284 284 283 283 283 283 282 281 281 280 278 278 279 280 281 281 281 281 281 281 282 281 280 279 277 276 275 276 276 278 279 278 279 279 280 281
278 279 280 281 280 280 280 280 280 280 279 278 278 279 280 279 278 279 277 277 277 277 280 280 280 279 276 277 277 276 276 274 276 277 277 278 279 280
279 279 279 279 278 278 278 279 278 278 277 277 276 276 276 276 275 276 275 275 273 273 274 276 278 277 277 276 274 275 274 274 276 276 277 276 278 280
280 279 279 278 277 277 276 275 275 276 276 275 274 274 273 273 273 273 273 272 271 271 271 273 273 272 272 274 276 273 274 274 274 274 275 274 273 276
278 277 276 276 276 275 275 274 273 273 274 273 272 272 272 271 271 270 270 269 269 269 269 270 270 269 266 264 272 275 271 272 272 272 274 274 273 275
276 275 274 274 274 273 273 273 272 272 272 271 269 268 268 268 267 267 267 266 266 267 267 268 268 268 266 265 266 269 274 271 270 270 271 273 275 278
273 273 273 273 272 272 271 270 269 268 268 267 266 266 264 266 264 265 265 263 263 266 265 266 268 270 270 269 264 265 269 274 274 272 271 270 270 271
271 271 271 270 270 269 268 268 267 266 266 266 263 261 260 262 261 261 262 261 264 264 265 266 268 268 267 266 265 264 266 269 272 274 275 274 271 269
269 268 268 267 267 266 266 265 264 263 264 263 263 262 256 258 261 260 259 261 263 263 264 264 265 266 266 266 265 265 265 265 268 268 270 275 276 277

GFSNE_sfc_thetae_090.txt.gz
Theta_e
313 314 315 315 316 316 315 313 309 302 302 308 311 313 314 313 311 311 309 307 304 304 305 308 310 312 313 314 313 314 314 313 312 310 308 307 306 305
316 314 315 315 316 316 316 315 314 311 307 308 310 313 314 315 313 311 311 308 304 302 302 303 306 308 309 309 308 308 309 308 307 306 305 304 302 300
314 314 315 315 315 315 316 315 314 313 310 312 314 315 310 312 314 310 313 312 311 301 301 301 302 303 303 303 303 304 304 304 304 302 301 300 299 299
313 313 314 315 313 314 314 314 314 315 313 309 312 312 309 310 311 308 307 308 308 303 300 300 301 300 300 299 299 299 299 299 298 298 297 297 297 297
315 314 314 314 313 314 313 313 313 313 313 312 311 314 312 306 306 306 304 305 306 305 299 298 299 299 299 298 297 296 295 294 294 294 294 295 295 295
313 314 315 314 314 313 312 312 313 312 312 312 312 312 310 306 305 304 299 302 303 302 300 298 297 297 296 295 294 293 293 293 293 293 292 292 292 293
312 312 312 311 307 310 313 312 313 311 312 311 311 311 307 296 302 304 305 305 295 295 296 295 294 295 294 294 293 293 293 293 293 293 293 292 291 291
309 310 311 304 304 300 301 302 309 312 311 311 311 309 309 308 307 304 302 291 292 293 292 290 293 291 293 293 293 292 292 293 293 293 293 292 292 291
310 310 310 311 304 310 301 297 293 290 291 310 312 311 310 309 306 293 289 289 287 289 289 285 288 288 291 293 292 292 292 293 293 293 293 292 291 291
310 311 311 310 310 309 309 299 292 289 289 291 294 294 290 291 293 292 289 286 286 286 288 284 285 285 287 288 290 291 292 291 291 292 292 292 291 290
312 313 313 311 305 299 300 291 285 284 288 288 288 288 288 288 290 289 285 286 283 282 284 284 284 284 284 284 287 289 289 287 287 287 287 288 288 288
311 295 290 301 298 293 304 292 286 283 283 283 283 283 284 284 284 285 285 283 282 280 281 281 281 281 280 283 283 283 283 283 284 284 284 285 286 285
298 285 286 288 288 289 290 290 287 283 282 282 281 282 282 282 282 282 282 282 281 279 280 280 279 279 279 278 279 281 280 280 280 281 283 283 284 284
284 284 284 285 285 285 284 284 283 283 282 281 280 279 279 279 280 281 281 281 281 280 281 281 278 278 276 274 274 278 279 280 280 280 280 281 282 282
285 284 284 284 283 282 283 283 282 282 280 278 277 278 279 280 281 280 281 281 281 281 281 281 279 278 278 276 275 276 277 279 279 278 278 278 277 278
280 280 280 280 280 280 280 280 280 279 278 277 277 278 278 276 276 277 276 276 276 276 278 279 278 277 274 275 275 274 275 274 277 277 277 277 277 278
280 280 279 278 277 277 277 277 277 277 276 276 275 275 275 274 274 275 274 274 272 271 272 274 274 274 274 273 271 272 272 273 274 274 274 273 275 276
279 277 276 276 274 274 274 274 275 274 274 274 273 273 272 272 272 272 272 270 269 269 269 270 270 270 271 272 274 270 270 270 271 271 272 271 272 274
276 275 274 274 274 274 273 272 271 273 273 272 271 271 270 270 269 268 268 267 267 267 268 269 268 267 264 262 268 273 268 269 269 269 271 271 270 272
274 273 272 272 273 272 272 271 271 271 270 269 268 267 268 268 267 266 266 265 265 266 266 267 267 266 264 262 263 267 273 269 268 267 268 270 271 274
271 271 271 270 270 270 269 268 268 267 266 265 265 264 261 264 263 264 264 264 264 265 264 264 266 269 268 267 259 262 267 271 271 269 268 267 267 269
269 269 268 268 268 268 267 266 266 265 265 263 258 258 258 262 261 261 261 260 262 262 263 265 267 266 265 264 263 262 265 267 270 272 273 272 269 266
266 265 265 265 265 264 264 262 261 259 261 260 258 258 252 256 259 260 259 260 262 262 262 262 264 265 264 264 263 263 263 264 266 266 268 273 274 275

GFSNE_sfc_thetae_093.txt.gz
Theta_e
313 312 311 312 313 314 314 312 309 303 303 308 309 312 312 311 310 310 310 308 304 304 305 307 309 311 312 314 315 317 318 319 319 318 317 316 314 312
314 314 314 314 315 315 314 313 312 309 306 309 310 312 314 314 314 312 312 308 304 302 302 303 305 307 309 310 311 313 314 315 316 315 313 312 310 309
313 311 313 315 314 314 315 314 313 312 309 311 312 313 311 314 315 315 314 313 312 303 301 301 301 302 304 306 307 309 310 311 311 310 310 309 307 306
311 311 312 313 312 313 314 313 313 313 311 309 312 311 309 312 313 313 312 313 314 309 303 302 301 301 301 302 303 304 304 304 304 304 305 305 303 303
313 311 312 312 311 312 312 312 313 313 313 312 311 313 313 307 309 309 311 310 308 307 302 300 300 300 300 301 301 301 300 299 297 296 296 296 297 297
313 313 312 312 312 312 311 311 311 311 311 311 310 311 310 308 303 306 304 300 306 308 304 300 300 299 299 299 298 298 297 296 294 293 292 291 292 294
311 311 312 311 307 309 313 313 312 310 310 309 308 309 309 308 303 310 307 309 306 303 300 297 297 296 297 296 297 295 293 293 292 292 292 292 291 292
308 310 310 304 304 300 300 302 308 310 309 309 309 308 309 310 311 308 307 306 300 295 294 292 293 292 294 294 293 293 292 292 292 292 292 292 292 291
309 309 309 310 303 309 300 297 297 297 299 310 309 309 309 311 312 309 307 306 304 291 291 286 289 288 292 293 292 292 291 291 291 291 291 291 291 291
308 308 308 308 307 306 306 305 302 305 302 300 305 309 311 301 298 303 307 292 286 286 289 284 285 285 288 289 291 291 290 290 291 290 290 290 291 291
309 309 308 307 304 299 304 304 304 289 288 289 289 288 288 289 291 292 287 288 284 283 283 285 283 284 284 285 286 288 288 288 286 285 285 285 285 286
307 307 298 304 300 296 303 305 303 289 285 282 282 283 284 284 284 284 286 286 282 280 280 281 281 281 280 282 283 283 282 283 283 283 284 284 284 283
302 297 286 287 288 290 292 302 300 284 282 282 281 281 281 281 281 281 281 281 279 277 280 281 279 279 279 279 279 280 280 280 280 281 282 282 282 282
285 285 285 285 285 285 284 284 284 283 281 280 279 278 278 279 280 280 281 281 281 279 280 280 278 278 277 275 275 279 279 280 280 280 280 281 280 280
283 283 283 283 283 282 283 282 281 280 279 278 277 276 277 278 278 278 279 279 278 278 279 278 277 277 276 275 274 275 275 277 279 278 277 277 277 277
281 280 280 279 279 279 279 279 278 278 277 276 275 275 276 275 274 275 274 276 274 274 275 275 274 274 273 273 273 272 274 272 275 274 274 274 275 276
279 278 277 277 276 276 276 276 276 275 274 275 274 273 273 273 272 273 273 273 271 270 270 271 273 274 273 272 271 271 270 270 271 271 271 270 272 273
277 274 274 274 273 272 272 272 273 273 273 273 272 272 271 271 270 270 270 269 268 268 268 269 270 269 269 270 273 269 269 268 269 270 271 269 269 272
273 273 272 272 272 272 272 271 270 270 271 270 270 270 270 269 268 267 267 267 267 267 267 269 268 266 263 261 267 271 266 268 268 267 268 268 267 269
272 271 270 271 271 270 270 269 269 269 268 267 267 267 267 267 266 266 266 265 266 266 266 266 266 265 261 256 258 265 271 267 266 265 266 268 269 272
269 269 269 269 269 268 267 267 266 265 264 264 264 264 263 264 263 263 264 263 263 264 263 263 265 267 267 266 257 259 265 270 270 267 267 266 266 267
267 267 267 267 267 266 266 265 265 264 263 263 260 260 259 261 260 260 259 258 262 262 263 264 265 265 264 263 262 260 263 265 268 270 272 271 267 264
264 264 263 263 264 263 263 261 260 259 260 259 259 258 253 254 258 258 258 260 261 261 261 261 263 263 263 263 262 262 262 262 264 264 266 271 273 273

GFSNE_sfc_thetae_096.txt.gz
Theta_e
313 313 312 313 315 314 313 312 308 303 304 308 309 312 312 313 312 313 314 310 305 304 305 306 309 311 312 313 314 316 318 319 320 321 321 321 321 321
313 312 312 313 314 313 314 313 312 309 305 309 310 313 313 313 312 311 311 308 305 303 302 303 305 307 309 309 311 312 313 315 316 318 319 319 320 319
313 313 312 313 313 313 312 312 312 312 309 311 312 313 312 314 315 314 314 314 314 304 304 302 301 302 303 304 305 307 308 310 312 314 316 317 318 318
311 312 312 312 313 313 313 313 313 314 312 309 312 311 311 312 314 314 314 314 315 310 305 302 302 301 301 301 301 302 304 306 307 309 310 313 314 314
314 312 311 311 311 311 311 312 312 313 312 312 311 312 313 312 311 312 313 313 312 310 304 302 302 302 301 300 300 301 302 303 303 303 303 303 304 305
312 312 312 311 310 310 310 310 311 311 311 310 311 311 312 312 308 309 309 306 309 310 306 305 303 301 300 300 299 299 300 301 301 299 296 294 293 294
310 311 312 310 305 308 312 311 311 310 310 309 309 310 310 309 305 310 308 310 310 310 310 308 305 304 303 298 300 299 299 299 297 294 292 291 291 291
309 310 310 304 304 299 299 301 307 310 309 309 309 308 308 309 311 310 308 306 305 305 306 307 299 300 299 299 297 295 295 294 293 292 292 292 291 291
309 309 309 310 303 309 301 297 297 297 300 310 308 309 309 310 311 309 308 308 308 308 298 297 291 290 294 294 293 293 293 292 292 292 291 291 290 290
308 308 308 308 308 307 307 306 303 305 303 303 308 310 311 309 305 305 304 299 287 287 289 286 286 285 287 289 292 292 291 290 290 290 289 288 287 287
309 309 309 308 304 299 305 304 304 301 289 290 288 287 287 287 288 295 295 292 286 283 282 285 283 284 284 284 285 287 287 287 287 286 286 286 286 285
306 305 291 289 290 292 299 303 302 301 285 283 283 282 283 283 283 283 286 291 283 279 280 281 281 282 279 282 281 281 282 283 283 283 284 284 284 283
286 285 285 286 288 289 290 289 288 284 282 281 280 280 280 280 280 281 281 281 278 276 280 281 279 280 279 279 280 280 280 281 281 281 282 282 283 282
285 284 284 284 284 284 284 285 284 283 282 280 279 277 277 277 278 278 278 278 278 276 277 280 277 278 277 276 276 279 278 279 279 279 279 279 279 279
281 281 281 281 281 280 280 280 280 279 277 275 274 274 275 276 277 278 277 276 275 275 275 275 276 276 276 274 274 274 274 276 276 275 275 275 275 276
279 279 278 278 277 276 276 277 276 276 275 274 273 274 274 274 273 275 274 274 272 271 274 274 275 274 273 273 273 272 272 271 273 272 272 273 274 274
276 276 274 274 273 273 273 273 274 274 273 273 273 272 271 271 271 272 272 272 270 269 269 271 273 273 273 273 271 270 270 269 270 271 271 270 272 273
274 272 271 271 271 271 270 270 271 271 272 272 271 271 270 269 269 270 270 270 268 268 268 269 269 269 269 271 272 269 268 268 269 270 270 268 268 271
271 270 270 270 270 270 269 269 268 269 270 269 269 269 269 268 268 267 268 268 267 267 267 268 267 265 263 262 267 271 267 267 267 267 268 268 268 269
270 269 268 268 269 268 268 268 267 267 267 267 267 267 267 267 266 266 266 265 266 266 265 266 265 265 263 262 263 266 270 268 267 267 267 269 270 272
268 268 268 268 268 267 266 266 265 264 264 264 264 264 264 264 264 264 264 263 264 264 263 263 265 267 267 267 262 263 266 270 270 268 268 267 266 268
266 266 266 265 265 265 264 264 264 263 263 263 261 261 262 262 261 261 262 262 263 263 263 264 265 265 265 264 262 262 264 266 268 270 270 270 267 264
263 263 262 262 263 262 262 260 259 259 260 260 260 259 257 259 261 261 261 262 262 261 262 262 263 264 263 263 262 262 262 263 265 265 267 270 272 272

GFSNE_sfc_thetae_099.txt.gz
Theta_e
314 314 315 315 316 318 319 318 311 308 310 315 315 318 320 322 319 321 318 312 305 305 305 307 309 311 312 313 314 315 317 319 319 320 321 323 323 323
315 315 315 315 317 318 319 318 314 312 309 313 315 319 315 317 317 319 320 311 306 303 303 304 305 307 308 309 310 311 313 314 315 317 318 319 321 322
316 318 316 315 314 318 319 318 316 317 313 315 318 320 317 315 315 317 315 314 314 303 302 302 302 303 304 305 306 307 308 310 311 312 314 316 318 319
313 313 312 312 313 315 316 315 316 316 314 314 318 319 318 319 321 317 315 316 316 310 304 302 302 302 301 301 301 302 303 305 306 307 309 311 313 316
313 312 312 313 312 312 313 312 314 315 316 316 316 318 318 318 317 315 315 315 315 311 305 303 303 303 302 301 301 301 301 301 301 301 302 303 306 310
318 317 314 312 312 312 314 312 312 312 314 316 316 316 318 321 319 317 317 319 317 317 311 307 306 305 302 302 301 301 301 301 301 300 299 299 299 302
318 318 319 316 307 310 313 312 312 312 314 314 314 316 316 317 316 318 316 318 320 319 316 318 320 318 315 302 303 300 300 299 299 299 299 298 296 296
315 316 317 307 307 300 300 301 310 314 314 312 312 311 312 314 316 314 314 312 309 321 318 317 321 318 316 314 297 297 297 297 297 294 292 291 291 291
316 316 315 315 308 315 302 297 297 297 299 313 311 311 311 313 316 313 313 312 312 316 314 311 297 295 293 295 294 293 293 293 293 292 292 290 290 290
312 313 314 315 315 313 313 313 311 309 304 303 307 310 308 295 297 303 306 309 302 290 292 296 288 285 286 287 289 290 289 289 288 287 287 286 286 286
309 308 299 302 296 293 303 305 304 303 288 290 287 286 286 285 286 292 295 297 295 285 282 286 285 282 281 281 284 286 286 286 286 286 286 286 285 285
288 287 286 288 288 289 295 296 298 297 285 284 283 282 282 282 281 282 284 287 288 283 281 282 281 283 278 280 281 282 282 284 284 284 284 284 284 285
284 283 284 285 286 286 286 288 289 285 284 282 280 279 279 278 278 278 277 277 278 275 278 282 280 281 280 278 280 280 281 281 282 283 282 282 282 281
281 281 282 283 282 283 282 282 282 280 279 277 276 275 276 277 277 276 276 276 277 275 277 280 278 279 279 278 277 279 279 280 279 278 278 278 278 278
281 280 280 280 280 280 280 280 279 278 276 275 275 274 276 277 279 278 278 277 276 276 276 277 278 278 278 276 276 275 275 277 276 275 275 275 276 276
280 280 280 279 278 279 280 280 279 279 278 277 276 277 278 278 277 278 277 277 275 273 275 275 276 277 275 274 275 273 273 271 273 274 274 275 276 276
280 280 279 279 278 278 277 277 278 279 278 278 277 276 276 276 275 276 276 275 274 272 272 273 275 275 275 275 273 272 272 271 273 273 273 272 274 276
278 277 276 276 275 275 275 275 275 275 276 276 275 275 274 274 274 274 274 273 272 271 271 271 271 272 272 272 274 271 271 271 272 272 273 271 272 275
276 275 274 275 274 274 274 273 272 272 273 273 273 273 273 272 273 272 272 272 271 270 269 270 270 269 268 267 271 271 270 270 271 272 273 273 272 274
275 274 273 274 273 272 272 271 271 271 271 271 270 271 271 271 271 270 270 270 270 269 269 269 269 268 268 267 267 271 271 270 271 271 272 274 275 275
272 272 272 272 271 271 270 270 268 267 268 269 269 268 269 269 268 269 268 266 268 268 267 267 268 268 270 271 269 270 272 272 271 270 271 271 272 273
271 270 270 270 270 269 269 268 268 268 268 267 267 267 268 268 267 267 267 268 267 267 267 268 269 269 269 268 267 268 270 272 273 273 272 271 270 268
268 268 268 268 268 267 267 266 265 265 266 266 266 266 266 266 267 267 267 267 266 266 266 267 268 269 268 267 267 268 268 269 270 271 273 274 273 274

GFSNE_sfc_thetae_102.txt.gz
Theta_e
318 319 317 317 318 318 316 314 311 309 309 314 318 324 325 325 322 325 324 314 305 305 305 307 309 311 312 313 314 315 317 318 319 320 321 322 323 324
316 316 316 316 316 316 316 317 316 312 308 314 317 321 324 322 321 324 325 313 306 303 302 304 305 307 308 309 310 311 312 314 315 317 317 318 320 321
314 313 313 314 314 316 316 316 314 314 309 313 316 320 322 324 321 323 321 321 322 305 303 302 302 303 304 305 306 307 308 310 311 312 314 316 317 319
314 314 313 316 316 318 317 315 315 319 316 313 313 316 322 323 324 324 321 319 319 310 303 302 302 302 302 302 302 303 304 304 305 307 308 310 312 314
316 315 316 317 315 315 314 314 315 317 318 313 314 320 321 321 322 323 323 324 319 312 304 302 302 303 303 302 302 302 302 302 301 301 302 303 305 307
319 318 315 314 314 314 314 315 312 312 313 313 313 314 316 320 321 319 319 323 321 321 315 310 309 307 302 302 302 301 301 301 301 300 298 297 297 299
318 318 318 315 307 312 317 317 313 312 312 314 312 311 311 313 316 320 319 321 323 324 324 325 324 324 321 305 307 301 301 300 299 299 298 297 295 296
319 319 319 309 310 300 301 302 313 316 315 313 310 310 313 317 320 319 319 318 315 324 322 321 324 321 307 300 294 295 296 296 297 297 294 292 291 291
319 319 318 319 312 320 303 297 298 297 299 317 317 317 316 317 314 317 317 316 315 314 307 313 302 287 288 290 292 292 292 292 291 290 289 289 289 289
316 311 309 312 306 304 314 314 312 311 306 306 307 305 294 290 292 297 297 298 300 288 290 289 286 282 283 285 287 288 288 288 287 287 287 287 286 286
293 289 291 294 289 290 299 303 302 290 288 288 287 285 284 284 284 291 293 293 294 286 283 287 285 281 281 281 283 285 285 286 286 286 286 286 286 286
286 285 285 287 286 287 293 294 294 289 284 283 281 281 280 280 280 281 282 286 288 285 279 283 283 283 279 282 283 284 284 284 284 283 283 283 283 284
282 282 283 284 284 284 285 285 286 284 282 281 280 280 279 278 279 279 279 280 279 276 278 283 282 283 283 280 281 282 282 282 282 281 281 280 280 280
280 281 282 282 282 282 282 281 281 281 280 278 278 277 277 277 278 278 279 279 280 279 281 284 282 284 283 281 281 281 282 281 280 278 278 278 278 278
283 282 282 282 282 282 282 281 282 281 280 278 277 277 279 281 282 281 282 281 279 279 280 281 282 282 283 282 281 280 278 280 279 278 277 277 277 278
283 283 282 282 281 283 283 283 284 284 283 281 281 281 282 282 281 282 281 281 280 279 279 279 280 281 279 279 279 278 277 276 278 278 278 278 279 279
284 285 284 283 282 282 281 281 282 282 281 281 281 281 281 280 279 281 280 280 277 276 276 278 278 279 278 278 277 276 276 276 277 277 276 275 277 278
284 282 281 281 280 280 280 279 280 279 280 280 280 279 278 278 278 278 278 277 276 275 275 276 277 278 277 276 275 275 276 275 276 277 277 276 276 279
281 280 279 279 279 279 279 278 277 277 277 278 278 277 277 276 277 276 277 276 275 274 274 275 275 275 274 273 276 272 273 274 275 276 277 277 276 278
279 278 277 277 277 276 276 276 276 276 275 276 276 275 276 276 275 274 274 274 274 273 273 273 272 271 271 271 271 275 274 273 274 274 274 276 278 278
276 276 276 276 276 275 275 274 274 273 274 274 274 273 274 274 273 273 272 270 272 272 271 271 272 270 274 275 273 274 276 275 274 273 274 274 275 276
275 274 274 274 274 274 274 274 274 273 273 273 272 273 273 273 272 272 272 273 271 272 271 273 273 273 273 271 271 272 274 276 277 276 276 274 273 271
273 273 273 273 273 272 272 272 271 272 271 271 272 272 271 272 272 272 272 272 270 271 271 272 273 273 273 272 271 273 273 274 275 276 278 277 276 276

GFSNE_sfc_thetae_105.txt.gz
Theta_e
319 323 317 317 318 318 317 315 310 305 307 315 318 325 325 326 322 324 324 314 306 305 305 307 310 311 312 313 314 315 317 318 319 319 320 321 323 324
318 319 318 318 318 317 316 315 313 310 307 313 314 318 325 324 323 327 327 314 307 303 303 304 306 308 309 309 310 311 312 314 315 316 317 318 320 321
316 316 316 316 315 315 316 315 314 313 309 312 314 316 320 321 322 326 325 326 325 304 302 303 303 304 305 305 306 307 308 310 311 312 314 316 318 319
314 314 314 314 314 315 314 313 313 313 310 308 312 313 315 322 319 320 323 322 325 312 304 303 302 302 302 302 303 303 304 305 306 307 309 311 313 315
317 315 314 313 312 315 316 316 316 315 317 313 312 317 318 321 319 320 321 320 322 314 304 302 301 302 302 302 302 302 302 302 302 302 302 303 305 307
320 318 317 316 316 317 318 318 318 317 313 312 312 316 318 321 319 317 318 322 322 323 315 311 309 305 303 303 302 301 301 302 301 300 299 297 296 298
319 318 319 316 307 312 318 319 318 317 314 314 313 311 311 313 316 317 313 317 320 323 322 323 323 322 300 295 296 296 296 297 299 299 298 296 295 295
318 319 320 308 307 299 300 300 308 319 316 313 313 312 313 315 318 316 316 315 313 322 309 316 302 291 291 291 292 292 292 292 291 291 291 291 290 290
319 317 318 319 309 317 303 297 298 298 295 314 313 313 312 307 300 304 307 306 305 299 301 301 289 285 287 288 289 289 289 289 289 289 288 288 287 287
297 296 299 300 291 295 302 307 301 293 293 299 298 291 287 287 291 295 296 297 298 288 289 290 285 282 284 285 287 288 287 287 287 287 287 286 286 286
288 288 290 289 287 289 297 299 289 285 286 286 285 284 284 284 284 291 287 288 289 285 281 285 285 282 282 282 284 285 286 286 285 285 285 284 285 286
284 284 285 285 285 287 292 293 291 284 282 282 281 281 281 281 281 281 282 286 285 284 281 282 284 283 279 283 284 285 285 284 283 283 283 282 282 283
282 282 283 284 284 284 284 284 283 283 281 280 280 281 279 279 279 280 280 281 280 278 281 284 284 284 284 282 283 283 283 283 283 283 282 281 280 279
281 282 283 284 283 283 283 282 282 282 281 280 279 279 278 279 280 280 280 281 281 281 283 285 283 283 284 283 281 282 283 282 281 280 280 280 281 280
283 283 284 284 284 283 284 284 284 284 283 281 280 281 282 283 284 284 283 282 281 281 283 283 283 284 284 282 281 281 279 280 281 280 280 280 280 280
284 284 283 283 283 284 284 284 284 284 284 282 282 282 284 283 282 284 283 283 282 280 280 281 281 282 281 280 280 278 279 277 279 279 278 279 280 280
285 285 284 284 283 282 282 283 283 283 282 283 282 282 282 282 281 282 282 281 279 278 278 279 280 280 278 278 278 277 277 277 278 278 277 277 279 281
284 282 281 282 281 281 280 280 280 280 281 281 281 280 279 279 279 280 280 279 277 276 276 277 278 279 279 276 276 275 276 276 277 278 278 277 277 280
281 280 280 280 280 280 279 279 277 278 279 279 279 279 279 278 278 278 278 277 276 276 275 276 276 275 275 274 277 276 275 275 275 276 276 276 276 277
279 278 278 278 278 277 277 277 277 277 277 277 277 277 277 277 276 275 275 275 275 275 275 275 274 272 272 271 272 276 277 275 275 274 274 276 278 279
278 277 278 277 277 277 277 276 275 274 275 276 276 275 276 275 274 275 275 272 273 274 273 273 273 273 275 276 274 275 277 278 275 275 275 275 275 276
277 276 276 276 276 276 275 276 275 275 275 275 274 274 275 275 274 274 273 273 273 273 273 274 275 275 275 273 272 273 275 277 279 280 279 277 274 271
275 275 274 274 274 274 274 273 273 273 272 273 272 273 273 273 273 273 273 273 272 272 272 273 274 275 274 274 272 273 275 275 276 276 278 278 279 279

GFSNE_sfc_thetae_108.txt.gz
Theta_e
319 319 319 318 317 317 315 315 311 305 308 313 314 319 319 320 317 318 317 310 305 305 305 307 310 312 312 313 315 316 318 319 319 320 320 321 323 323
319 319 318 318 316 316 315 314 312 309 305 311 314 317 320 321 319 318 319 313 307 304 303 304 306 308 310 310 311 311 313 314 315 316 317 318 319 320
317 318 317 317 316 316 316 315 313 312 308 310 313 313 315 317 320 319 320 321 320 305 303 303 303 304 305 306 307 308 309 310 311 313 314 316 318 319
317 316 316 317 316 316 315 314 314 314 311 309 311 311 311 313 317 318 318 319 321 312 305 304 303 302 302 302 302 303 304 305 306 307 308 310 312 314
315 315 315 315 314 314 315 314 314 314 312 310 310 312 313 314 314 316 315 316 319 313 307 304 303 303 302 302 302 302 301 301 300 301 301 302 304 306
316 316 315 314 313 313 313 313 313 312 312 311 311 311 312 313 315 313 311 314 316 320 314 310 305 302 298 297 296 297 297 297 299 299 298 296 296 298
317 317 316 313 307 310 314 314 315 313 312 311 310 309 309 310 309 312 311 313 314 315 315 314 299 296 293 293 294 294 294 294 293 293 292 292 291 292
315 315 316 307 307 300 301 301 311 314 313 311 309 308 309 311 311 310 310 310 305 301 305 302 294 289 289 290 291 291 291 291 291 291 290 290 289 289
305 307 312 304 300 310 299 296 296 292 290 305 307 309 306 299 300 302 304 303 302 295 298 297 289 284 286 288 289 289 289 289 288 288 288 287 287 286
292 295 297 294 290 294 303 295 289 287 290 292 290 286 285 286 289 294 295 295 293 286 287 288 285 283 284 285 287 288 288 287 287 286 286 286 287 286
287 287 289 287 287 290 298 291 285 283 286 286 285 285 284 284 285 291 287 287 287 284 281 285 284 281 282 282 284 286 285 285 284 284 284 284 283 284
284 284 285 285 286 287 292 289 284 282 282 282 281 281 282 281 282 282 283 285 284 281 281 282 283 282 279 282 283 284 284 284 284 284 283 282 281 277
282 282 284 285 285 285 285 284 282 282 281 280 280 280 280 280 280 280 280 281 280 278 281 283 283 283 279 279 277 278 277 276 275 277 281 281 282 279
281 283 283 285 284 283 283 283 283 282 281 280 280 279 279 280 281 281 280 278 278 276 276 283 281 282 282 281 279 276 278 276 275 275 276 280 281 282
283 284 284 284 284 283 284 284 284 283 282 280 279 280 280 282 283 281 276 274 274 275 278 276 277 281 281 280 279 275 275 276 276 275 276 276 276 277
282 283 282 282 283 282 282 283 283 282 281 280 280 281 281 281 277 278 278 278 275 275 279 279 278 277 275 275 275 274 274 273 275 275 275 276 277 277
284 283 282 281 280 280 280 280 281 281 280 280 280 280 277 275 275 276 276 276 273 273 274 276 278 277 275 275 273 273 273 273 274 275 275 275 275 276
281 279 279 279 278 278 276 275 276 275 277 276 275 275 275 275 276 277 277 275 273 273 273 273 274 275 276 274 277 273 272 272 272 274 275 273 273 275
278 277 277 277 276 276 276 275 273 274 276 275 275 274 275 275 274 275 274 274 273 273 272 272 272 270 269 267 274 276 270 272 271 271 273 272 271 274
277 275 274 274 274 274 274 273 273 274 273 273 272 271 270 272 271 271 271 268 271 273 272 272 270 270 265 262 263 270 279 271 269 267 270 272 274 278
274 274 274 274 274 274 273 270 268 268 268 269 269 269 267 270 268 270 270 267 268 272 270 270 271 271 272 272 264 266 272 279 276 272 273 269 269 271
273 273 273 272 272 271 269 270 269 268 268 269 265 265 268 267 266 266 265 265 268 268 270 272 274 274 272 272 269 264 270 273 278 280 280 278 269 264
271 270 270 269 270 271 270 268 268 267 268 267 265 266 264 264 267 266 266 268 268 268 268 268 272 272 272 273 269 268 270 271 272 273 273 279 280 280

GFSNE_sfc_thetae_111.txt.gz
Theta_e
318 319 318 318 318 318 316 315 309 304 308 312 313 318 319 318 316 317 315 307 305 305 306 308 310 312 313 314 316 317 319 321 322 322 323 324 324 325
319 318 317 317 317 316 314 314 313 311 308 313 315 316 319 319 317 318 317 309 304 303 303 304 306 308 309 310 311 312 314 315 316 317 318 318 319 320
319 319 318 318 317 316 315 314 313 311 307 309 313 316 314 317 319 319 318 317 317 303 302 302 302 303 304 305 306 307 309 310 311 313 314 315 317 318
317 317 317 318 317 317 316 315 316 315 312 310 311 312 312 313 315 316 318 320 319 311 305 304 303 302 302 302 302 302 302 303 304 305 307 308 310 312
316 316 317 316 315 316 315 315 315 315 314 313 311 313 313 312 311 313 314 316 317 312 305 303 303 302 299 300 300 300 300 299 298 299 300 300 302 303
317 317 316 315 315 315 315 315 314 313 312 312 311 310 311 313 313 312 310 313 313 317 312 300 297 296 295 295 295 296 296 296 295 294 293 293 294 296
315 316 316 313 307 310 314 314 313 312 311 310 309 310 310 309 307 309 310 311 311 309 310 300 296 294 293 293 293 294 294 293 293 292 292 291 291 292
314 315 316 306 305 300 300 303 309 312 311 310 310 309 309 309 311 310 309 307 305 297 304 294 294 289 289 290 291 291 291 290 290 290 289 289 288 288
307 311 311 302 302 310 298 292 290 290 289 307 309 306 305 296 299 303 304 304 302 291 296 291 287 284 286 288 289 289 289 289 288 288 288 287 287 287
293 295 296 294 290 298 298 291 287 287 288 290 289 286 286 287 290 294 295 295 288 285 286 287 285 282 284 286 288 288 287 286 286 286 285 284 284 285
287 288 288 289 288 292 292 286 284 283 286 286 286 285 285 285 286 291 287 288 286 282 282 285 283 281 282 282 285 286 285 285 285 284 284 283 282 281
284 285 286 286 287 289 291 286 282 282 282 281 281 281 282 283 282 282 284 286 285 281 281 283 283 282 279 282 282 280 278 283 283 282 282 282 282 275
283 283 284 285 286 286 286 285 283 282 281 281 280 281 281 281 280 281 281 282 280 278 280 280 281 277 277 279 280 274 273 274 273 275 281 281 282 280
282 283 284 285 285 284 283 283 283 282 282 281 281 280 280 279 278 277 276 277 276 277 278 283 281 281 281 280 277 274 273 274 273 274 274 278 280 281
283 284 284 284 284 283 284 284 283 282 281 279 279 279 280 278 275 274 275 275 274 275 277 274 274 274 275 272 273 272 274 275 275 274 275 275 275 276
282 282 281 281 281 281 282 282 282 281 279 279 279 277 274 274 273 273 273 273 273 274 278 278 276 276 274 275 274 273 273 272 273 274 275 275 276 276
282 281 280 278 277 277 277 277 278 279 277 277 276 274 274 276 275 275 275 274 272 272 273 275 277 276 275 275 272 272 272 272 273 273 274 273 274 275
279 277 277 276 275 274 274 274 275 275 275 275 274 275 274 275 275 275 275 273 272 272 272 272 272 274 275 275 277 272 272 271 272 273 274 271 272 274
275 274 274 273 273 274 274 274 273 274 275 274 273 273 274 273 272 272 272 273 272 272 271 271 270 269 266 263 272 277 269 271 270 269 272 271 270 273
275 274 273 273 273 273 273 272 272 273 272 272 271 270 270 271 271 270 270 267 270 272 271 271 269 269 264 260 261 269 278 270 267 266 268 270 273 277
272 272 272 272 272 272 270 270 269 269 268 267 268 269 265 269 267 268 268 265 267 270 269 269 271 271 271 270 261 264 270 278 277 271 271 266 267 270
270 269 270 269 269 269 268 267 267 267 267 267 264 263 262 265 264 264 263 262 267 266 268 269 272 273 271 271 268 261 268 270 276 278 278 276 268 266
267 267 266 266 267 267 267 265 264 262 263 263 264 265 259 261 263 264 265 267 266 266 266 266 269 270 270 271 268 266 267 267 271 270 271 276 277 278

GFSNE_sfc_thetae_117.txt.gz
Theta_e
319 319 316 317 317 316 317 317 313 306 309 312 313 318 318 319 317 317 317 309 306 305 306 308 311 313 314 316 318 319 321 322 323 323 323 324 324 324
319 317 317 316 317 317 316 315 314 311 307 314 314 315 318 318 316 317 316 311 305 303 303 304 306 309 310 311 312 313 315 317 318 319 320 320 321 321
318 317 316 317 316 316 316 315 314 312 309 310 313 314 314 316 316 318 316 316 317 304 302 302 302 304 305 306 306 307 309 310 311 313 314 315 315 316
317 317 316 317 316 316 316 315 314 313 312 309 310 311 312 316 317 315 316 317 316 308 303 301 301 301 301 300 301 302 302 303 303 304 305 307 308 309
318 317 317 317 316 316 316 315 315 314 313 312 311 312 313 313 312 314 314 316 317 310 301 301 300 301 301 301 300 300 300 299 297 297 297 298 299 301
319 318 318 317 316 316 316 316 315 314 314 312 312 311 311 313 313 312 311 313 311 303 297 296 296 296 296 296 296 296 296 295 294 293 293 292 293 295
317 318 318 315 308 312 316 316 315 314 314 313 312 309 310 308 310 312 312 312 309 301 297 297 295 293 294 294 294 294 294 293 293 292 291 291 291 291
315 316 317 306 306 300 301 301 310 314 311 310 310 309 309 310 310 310 310 307 302 301 296 290 292 289 290 291 292 292 291 291 291 290 289 289 288 288
315 314 314 311 306 309 291 291 290 289 290 310 310 310 309 309 308 306 306 305 301 293 293 285 286 285 288 290 290 290 289 288 288 287 287 287 287 287
295 297 306 302 296 303 299 293 289 288 289 291 293 289 289 291 296 301 302 291 288 286 290 283 284 283 285 286 288 288 287 286 286 285 284 283 283 283
287 288 291 293 289 293 296 288 284 284 287 287 286 286 286 287 289 294 289 290 285 284 285 284 282 281 282 283 285 286 286 284 284 284 284 283 282 281
285 285 286 288 288 290 292 288 284 282 282 282 282 282 283 283 283 284 286 287 285 283 283 283 281 281 278 282 283 282 281 283 283 282 282 282 282 274
283 283 284 286 287 287 287 285 282 283 282 281 280 280 280 279 280 281 282 285 285 282 283 285 282 282 280 279 280 280 278 276 272 274 279 280 281 279
282 283 284 285 285 285 284 284 284 283 282 280 278 277 277 277 277 278 278 278 278 279 281 284 283 282 280 278 277 275 273 273 273 274 275 278 279 280
281 282 282 283 283 282 283 283 282 282 281 280 277 276 276 277 278 278 278 278 278 278 278 279 279 277 276 274 273 272 273 274 275 275 275 275 275 276
279 279 279 279 279 279 279 279 279 280 278 277 276 277 277 277 276 277 276 275 275 275 277 278 278 278 275 275 274 273 274 272 274 274 274 275 276 276
278 278 277 276 276 276 276 276 277 277 276 277 276 276 276 276 275 276 275 274 272 273 273 276 277 277 276 276 273 273 273 273 274 274 274 273 274 275
275 274 273 274 273 274 274 274 274 275 275 276 275 275 275 275 275 275 275 273 271 271 271 273 274 275 275 275 277 273 273 273 273 274 274 271 272 275
273 272 272 272 273 273 273 273 272 273 274 274 274 274 274 274 273 273 273 272 271 271 271 272 272 272 270 268 272 277 271 272 270 270 271 271 270 273
271 270 270 271 271 271 271 271 270 271 271 271 271 271 272 272 271 271 271 271 271 271 271 271 271 271 268 266 266 269 276 271 270 268 268 270 272 276
269 269 269 269 269 268 267 267 267 267 267 267 268 268 268 270 269 269 269 268 269 270 268 268 270 272 272 270 264 266 270 276 274 270 269 264 265 268
266 267 267 266 265 265 264 264 264 264 265 266 265 264 265 267 266 266 266 266 266 266 267 269 271 271 271 270 267 261 267 267 272 274 275 273 266 265
264 264 263 262 263 263 262 261 260 260 262 262 263 264 262 264 266 265 265 266 266 265 266 266 268 269 269 268 266 264 265 264 267 267 268 273 274 275

GFSNE_sfc_thetae_120.txt.gz
Theta_e
319 319 318 318 317 317 318 318 313 307 310 312 313 318 319 320 317 318 318 309 306 306 306 308 311 313 314 316 318 319 321 322 323 323 323 324 325 324
318 318 318 318 317 317 316 317 317 313 310 313 314 317 319 319 317 318 318 311 305 304 303 304 306 308 310 311 312 314 316 317 319 319 320 321 322 323
317 318 317 318 316 316 316 316 315 314 309 311 316 317 316 316 316 317 317 317 315 303 302 302 302 303 304 305 306 308 309 311 312 314 315 317 317 317
317 317 317 317 316 317 316 315 314 313 311 309 311 312 314 316 317 315 316 317 318 308 304 302 301 301 300 301 302 302 303 304 305 306 307 308 309 311
316 316 317 316 315 316 316 315 315 314 313 311 310 312 313 314 313 314 315 316 316 308 301 300 300 300 300 300 300 300 301 300 299 299 299 300 301 302
317 317 318 317 316 316 315 315 315 314 313 312 312 310 311 312 313 313 312 313 307 301 297 297 297 297 297 297 297 297 296 296 295 294 294 293 294 297
317 318 318 316 308 312 316 316 315 314 313 312 311 312 311 310 311 313 312 313 308 299 296 296 295 294 295 295 296 295 295 294 294 293 292 291 291 292
316 317 318 307 306 301 301 303 311 315 313 312 311 310 311 312 312 312 312 307 300 300 295 290 292 290 291 292 293 293 292 292 291 291 290 289 289 289
316 316 315 314 307 312 293 291 290 290 292 313 311 311 309 310 310 308 309 307 302 296 292 285 287 286 289 291 291 291 290 289 289 289 289 288 288 286
293 297 311 309 307 302 299 294 289 289 291 293 295 292 293 294 302 305 307 292 289 288 291 283 285 284 286 288 289 289 288 287 286 285 284 284 284 283
287 288 288 295 290 296 297 289 285 284 287 288 287 287 287 287 290 297 292 292 286 286 286 283 282 282 283 284 286 287 286 285 285 284 284 283 283 281
285 285 286 288 289 290 295 290 285 283 283 282 282 282 282 283 283 285 287 289 285 284 285 282 282 282 279 283 282 282 283 284 283 282 283 283 282 281
284 284 285 286 286 287 287 287 284 283 281 281 281 280 280 279 279 280 280 285 286 283 283 285 282 282 280 279 280 279 279 278 278 278 280 282 282 281
280 282 283 285 285 285 284 284 284 283 281 280 279 278 277 277 278 278 279 279 279 279 280 284 283 282 280 278 277 276 276 276 278 277 278 279 279 279
280 281 281 281 281 281 282 282 282 282 279 277 276 276 276 278 279 279 279 279 278 278 279 281 282 282 281 278 276 274 275 276 277 277 277 277 277 278
279 279 279 279 278 278 278 278 278 279 278 276 276 277 277 277 276 277 276 277 276 276 279 279 280 279 277 277 277 274 276 274 276 276 277 277 278 278
278 277 276 276 275 276 276 276 277 277 276 277 277 276 276 276 276 277 276 276 274 274 274 276 278 278 277 277 274 274 274 274 275 276 276 275 276 277
275 273 273 273 273 273 273 273 274 275 276 276 275 276 275 275 274 275 275 274 272 273 273 274 276 276 276 276 278 274 274 274 275 276 275 274 274 276
271 271 270 271 272 272 272 272 271 273 274 274 274 274 274 274 274 273 273 273 272 272 272 273 273 274 272 270 273 277 274 274 274 274 274 274 272 274
269 268 268 269 269 269 269 270 270 271 271 272 272 272 273 273 272 272 272 272 272 272 271 272 271 271 270 270 271 272 277 274 273 272 272 273 274 276
267 267 266 267 267 267 266 266 266 267 267 268 269 270 270 271 270 270 269 270 271 270 269 269 270 273 272 272 270 270 272 274 274 272 272 270 270 271
265 265 265 265 263 264 263 264 264 265 265 266 265 265 267 268 268 268 268 268 268 268 268 270 272 273 272 270 268 267 269 270 272 273 274 273 271 268
262 263 262 261 263 262 262 262 261 261 263 264 265 265 265 266 267 267 267 267 267 267 267 267 269 270 269 269 268 267 267 267 268 268 270 272 273 273

GFSNE_sfc_thetae_123.txt.gz
Theta_e
325 325 324 324 323 322 321 320 319 309 309 313 315 321 322 321 319 325 325 310 306 306 307 309 312 313 315 316 317 319 321 322 323 323 323 324 324 325
324 322 322 322 321 321 321 324 321 316 310 315 316 318 320 320 316 322 322 311 305 304 304 305 307 309 311 311 313 315 316 318 319 320 321 322 323 324
321 320 320 322 321 320 320 320 319 319 313 315 317 319 318 319 319 319 320 321 321 303 303 303 304 305 306 306 307 309 311 313 314 316 318 320 321 322
319 320 320 322 320 319 319 318 320 320 315 311 314 315 317 319 318 317 317 320 322 310 303 302 302 302 302 302 302 303 305 306 307 309 311 313 314 314
320 319 319 322 319 318 319 319 320 318 315 312 311 314 316 316 316 317 320 321 321 311 303 300 301 301 300 300 300 301 301 302 301 302 302 303 304 306
320 319 320 322 320 320 319 319 319 316 314 313 312 311 313 314 316 314 313 319 315 306 299 301 299 299 299 299 299 299 299 299 298 297 295 295 296 299
317 319 323 319 309 315 318 318 318 315 314 312 312 311 311 311 311 315 314 314 308 302 298 297 297 297 296 296 297 296 296 295 295 294 294 293 293 294
316 319 322 308 308 302 302 304 314 316 314 313 312 311 312 313 314 313 313 310 302 301 297 291 293 291 292 294 294 294 294 294 293 292 292 291 291 291
318 318 318 317 310 316 300 294 293 294 296 318 313 314 313 314 314 312 313 312 308 299 293 286 288 287 291 292 292 292 292 291 291 290 290 289 288 287
290 292 300 312 312 313 303 299 294 293 294 297 307 311 308 310 314 313 311 293 291 289 292 284 286 285 287 289 290 290 289 288 288 289 288 287 286 284
287 288 288 291 289 293 301 294 287 285 288 289 288 288 288 288 294 303 294 295 288 287 288 285 284 283 285 285 286 287 287 286 286 285 284 284 284 283
285 285 285 286 287 288 296 293 289 285 284 284 284 284 284 284 284 286 297 298 287 286 286 283 283 283 280 283 283 284 284 284 284 284 284 284 283 283
281 281 283 285 286 287 287 287 285 284 283 282 281 281 281 280 280 281 282 287 287 285 285 285 283 283 281 278 279 280 279 279 279 280 282 283 282 283
279 280 281 283 283 283 284 284 284 284 282 280 279 277 277 278 278 279 280 280 281 282 284 286 285 283 280 278 275 277 277 278 279 279 280 281 281 281
281 281 281 281 280 280 281 281 281 280 280 277 276 276 277 278 279 279 280 281 280 280 282 285 285 283 282 278 275 275 276 278 280 279 280 281 282 282
280 279 279 279 279 279 279 279 279 278 278 277 276 277 278 277 276 278 277 278 277 277 279 281 282 282 280 281 279 277 277 276 278 280 280 281 281 282
279 279 278 278 277 277 277 278 279 279 278 279 278 277 277 277 277 278 278 278 277 276 276 278 280 280 280 279 277 277 277 277 278 279 279 279 280 280
277 275 275 276 276 276 276 276 277 277 278 278 277 277 277 276 276 277 277 277 276 276 276 278 278 277 277 276 279 276 277 277 278 278 278 277 277 279
275 274 274 274 274 275 275 275 274 275 276 276 277 276 276 276 276 275 275 276 275 276 276 278 279 279 276 273 275 278 276 276 277 277 277 277 276 278
273 273 272 273 273 273 273 274 275 275 274 275 275 275 276 276 275 275 275 275 274 274 274 275 275 276 277 275 274 275 277 277 276 276 276 277 277 276
271 271 271 271 272 272 272 273 273 273 273 274 274 275 275 275 274 274 273 273 274 274 273 273 274 275 276 277 274 273 274 274 275 275 275 275 275 277
269 269 269 270 270 270 271 272 273 272 273 273 273 274 274 275 273 273 273 273 273 273 273 274 276 276 276 275 273 272 273 274 274 273 274 273 274 273
267 267 267 267 268 268 269 269 269 270 270 271 273 273 273 272 272 272 272 272 272 272 273 273 273 274 273 272 272 272 269 271 272 273 275 272 272 272

GFSNE_sfc_thetae_126.txt.gz
Theta_e
338 338 334 334 333 331 330 329 325 316 314 320 321 327 328 326 322 323 323 311 306 306 308 310 313 315 315 317 318 319 320 321 322 322 323 323 324 325
331 332 330 329 331 332 329 328 325 319 313 321 324 326 326 323 320 323 323 312 306 304 304 306 308 311 312 313 313 314 316 317 319 320 321 322 323 323
327 327 326 327 326 327 324 324 323 320 318 323 324 325 323 320 318 322 321 322 319 303 303 303 304 305 307 308 308 310 312 313 315 316 318 320 322 323
324 324 324 325 326 325 323 323 324 322 322 315 320 318 319 320 319 318 319 321 321 307 303 302 303 303 303 304 304 305 306 307 308 310 312 315 318 320
324 323 323 324 322 322 322 323 322 321 323 321 317 317 318 319 317 318 318 318 319 312 302 301 302 302 303 302 303 303 303 303 303 303 305 306 308 311
323 324 323 323 322 321 321 324 322 322 321 320 316 313 315 317 317 315 313 316 315 316 301 302 303 302 302 300 300 300 301 301 301 300 299 298 299 302
321 322 323 321 312 316 321 323 323 321 318 316 312 313 312 311 312 315 313 314 315 310 307 304 305 305 302 299 302 299 299 299 298 298 297 295 296 297
319 319 321 310 309 303 301 305 317 321 317 315 314 312 312 313 314 313 314 311 304 305 303 294 296 294 295 295 294 295 295 296 296 295 294 294 294 293
291 293 306 318 309 318 302 298 300 300 302 318 317 317 315 318 315 312 312 312 311 302 295 287 290 288 291 292 293 293 293 293 293 292 291 291 290 289
288 287 289 292 291 292 316 311 309 300 300 302 311 318 319 323 318 319 314 307 292 291 294 285 287 285 287 289 291 292 291 291 290 290 289 288 287 286
285 286 285 286 287 289 299 305 294 287 289 289 289 288 288 288 294 310 298 297 290 289 287 287 285 284 285 285 287 288 288 288 288 288 287 286 285 284
283 283 284 284 285 286 293 296 294 288 285 285 285 285 285 285 284 287 298 300 290 287 288 285 285 284 281 284 285 286 286 286 286 286 286 285 284 283
281 281 282 283 284 284 285 285 285 285 283 284 282 281 282 281 281 282 283 287 288 286 286 286 284 284 282 279 281 282 282 282 283 284 285 284 284 284
282 283 282 283 282 282 281 282 283 284 283 282 279 279 279 279 280 281 281 281 282 284 285 286 285 284 280 277 275 278 278 279 279 280 281 283 282 282
283 282 282 282 282 281 282 281 280 279 279 277 276 276 278 279 281 281 281 281 280 281 283 285 285 283 283 277 275 275 276 278 280 279 280 281 282 282
283 284 282 282 282 281 281 282 282 280 278 277 277 278 279 279 278 280 280 280 278 277 281 282 284 282 278 278 277 277 278 277 281 282 282 282 283 283
284 284 283 282 281 282 281 281 281 281 280 280 280 279 278 279 279 281 281 279 277 277 276 278 280 281 282 280 277 279 279 280 281 280 281 280 282 283
281 279 279 279 279 280 278 278 279 278 279 279 279 279 278 279 279 280 281 280 279 279 279 280 280 279 278 278 281 279 279 279 280 280 280 280 279 281
279 278 277 277 278 278 279 279 277 278 279 279 278 278 278 278 278 278 279 279 278 278 279 281 281 281 278 273 276 279 279 279 279 279 279 280 279 280
277 276 276 277 277 277 277 277 277 278 278 278 278 278 278 278 277 277 277 277 276 277 276 277 278 280 279 277 275 275 278 279 279 278 278 279 280 277
274 274 274 274 275 276 275 277 277 277 278 278 278 278 278 277 276 275 275 275 275 275 274 273 275 278 279 279 275 274 275 275 276 278 278 279 279 279
272 272 272 272 272 273 274 275 276 276 277 277 277 277 278 278 277 277 277 276 276 275 275 276 277 278 278 277 276 275 275 276 275 275 274 274 276 277
270 271 271 270 271 272 272 273 273 273 274 275 276 276 276 276 276 276 276 276 276 276 276 275 276 276 276 275 275 274 272 273 275 275 276 273 272 272